| time (UTC) | temp F | wind direction | speed MPH | gust MPH | rain 1hr in | rain 24hr in | rain mn in | humidity % | barometer mb |
| 20260903125003 | 60 | 207 | 1.0 | 4.0 | 0.00 | 0.00 | 0.00 | 70 | 1016.6 |
| 20260903124817 | 60 | 203 | 2.0 | 6.0 | 0.00 | 0.00 | 0.00 | 70 | 1016.6 |
| 20260903124703 | 60 | 205 | 2.0 | 6.0 | 0.00 | 0.00 | 0.00 | 70 | 1016.7 |
| 20260903124503 | 60 | 226 | 2.0 | 6.0 | 0.00 | 0.00 | 0.00 | 70 | 1016.6 |
| 20260903124403 | 60 | 228 | 2.0 | 6.0 | 0.00 | 0.00 | 0.00 | 69 | 1016.4 |
| 20260903124303 | 60 | 241 | 2.0 | 4.0 | 0.00 | 0.00 | 0.00 | 70 | 1016.3 |
| 20260903124203 | 60 | 237 | 2.0 | 4.0 | 0.00 | 0.00 | 0.00 | 70 | 1016.6 |
| 20260903124103 | 59 | 235 | 3.0 | 4.0 | 0.00 | 0.00 | 0.00 | 70 | 1016.3 |
| 20260903124003 | 60 | 233 | 3.0 | 4.0 | 0.00 | 0.00 | 0.00 | 70 | 1016.2 |
| 20260903123903 | 59 | 233 | 2.0 | 4.0 | 0.00 | 0.00 | 0.00 | 71 | 1016.3 |
| 20260903123804 | 59 | 228 | 2.0 | 4.0 | 0.00 | 0.00 | 0.00 | 71 | 1016.3 |
| 20260903123703 | 60 | 231 | 2.0 | 4.0 | 0.00 | 0.00 | 0.00 | 71 | 1016.2 |
| 20260903123603 | 60 | 226 | 2.0 | 4.0 | 0.00 | 0.00 | 0.00 | 71 | 1015.9 |
| 20260903123508 | 60 | 221 | 2.0 | 4.0 | 0.00 | 0.00 | 0.00 | 70 | 1016.1 |
| 20260903123403 | 60 | 218 | 2.0 | 4.0 | 0.00 | 0.00 | 0.00 | 70 | 1015.9 |
| 20260903123303 | 60 | 213 | 2.0 | 4.0 | 0.00 | 0.00 | 0.00 | 70 | 1016.0 |
| 20260903123217 | 60 | 208 | 2.0 | 6.0 | 0.00 | 0.00 | 0.00 | 70 | 1016.0 |
| 20260903123203 | 60 | 206 | 2.0 | 6.0 | 0.00 | 0.00 | 0.00 | 70 | 1016.0 |
| 20260903123103 | 60 | 206 | 2.0 | 6.0 | 0.00 | 0.00 | 0.00 | 70 | 1016.1 |
| 20260903122903 | 60 | 215 | 2.0 | 6.0 | 0.00 | 0.00 | 0.00 | 70 | 1016.0 |
| 20260903122803 | 59 | 218 | 2.0 | 6.0 | 0.00 | 0.00 | 0.00 | 70 | 1016.0 |
| 20260903122717 | 59 | 225 | 3.0 | 6.0 | 0.00 | 0.00 | 0.00 | 71 | 1016.0 |
| 20260903122703 | 59 | 228 | 3.0 | 6.0 | 0.00 | 0.00 | 0.00 | 71 | 1016.0 |
| 20260903122603 | 59 | 236 | 2.0 | 6.0 | 0.00 | 0.00 | 0.00 | 71 | 1015.9 |
| 20260903122318 | 59 | 233 | 4.0 | 6.0 | 0.00 | 0.00 | 0.00 | 70 | 1016.0 |
| 20260903122305 | 60 | 233 | 2.0 | 4.0 | 0.00 | 0.00 | 0.00 | 71 | 1016.0 |
| 20260903122203 | 60 | 223 | 2.0 | 4.0 | 0.00 | 0.00 | 0.00 | 71 | 1016.2 |
| 20260903122003 | 59 | 200 | 2.0 | 4.0 | 0.00 | 0.00 | 0.00 | 71 | 1016.2 |
| 20260903121903 | 59 | 200 | 2.0 | 4.0 | 0.00 | 0.00 | 0.00 | 71 | 1016.0 |
| 20260903121803 | 59 | 194 | 2.0 | 4.0 | 0.00 | 0.00 | 0.00 | 70 | 1015.9 |
| 20260903121717 | 59 | 199 | 2.0 | 4.0 | 0.00 | 0.00 | 0.00 | 70 | 1015.9 |
| 20260903121703 | 59 | 203 | 2.0 | 4.0 | 0.00 | 0.00 | 0.00 | 70 | 1015.9 |
| 20260903121603 | 59 | 208 | 3.0 | 4.0 | 0.00 | 0.00 | 0.00 | 70 | 1015.9 |
| 20260903121403 | 59 | 199 | 1.0 | 6.0 | 0.00 | 0.00 | 0.00 | 71 | 1015.9 |
| 20260903121303 | 59 | 212 | 1.0 | 6.0 | 0.00 | 0.00 | 0.00 | 71 | 1016.0 |
| 20260903121203 | 59 | 214 | 2.0 | 6.0 | 0.00 | 0.00 | 0.00 | 71 | 1015.9 |
| 20260903121103 | 59 | 226 | 2.0 | 6.0 | 0.00 | 0.00 | 0.00 | 71 | 1015.7 |
| 20260903120903 | 59 | 241 | 4.0 | 6.0 | 0.00 | 0.00 | 0.00 | 71 | 1016.0 |
| 20260903120803 | 59 | 235 | 2.0 | 6.0 | 0.00 | 0.00 | 0.00 | 71 | 1015.8 |
| 20260903120703 | 59 | 228 | 3.0 | 6.0 | 0.00 | 0.00 | 0.00 | 71 | 1015.7 |
| 20260903120618 | 59 | 227 | 3.0 | 4.0 | 0.00 | 0.00 | 0.00 | 71 | 1015.8 |
| 20260903120603 | 59 | 228 | 3.0 | 4.0 | 0.00 | 0.00 | 0.00 | 71 | 1015.8 |
| 20260903120503 | 59 | 227 | 2.0 | 4.0 | 0.00 | 0.00 | 0.00 | 71 | 1015.9 |
| 20260903120417 | 59 | 225 | 3.0 | 4.0 | 0.00 | 0.00 | 0.00 | 70 | 1015.8 |
| 20260903120303 | 59 | 231 | 2.0 | 4.0 | 0.00 | 0.00 | 0.00 | 70 | 1015.8 |
| 20260903120003 | 59 | 235 | 1.0 | 4.0 | 0.00 | 0.00 | 0.00 | 70 | 1015.7 |
| 20260903115903 | 59 | 234 | 2.0 | 4.0 | 0.00 | 0.00 | 0.00 | 70 | 1015.7 |
| 20260903115803 | 59 | 230 | 1.0 | 4.0 | 0.00 | 0.00 | 0.00 | 70 | 1015.9 |
| 20260903115703 | 59 | 218 | 2.0 | 4.0 | 0.00 | 0.00 | 0.00 | 70 | 1015.9 |
| 20260903115603 | 59 | 204 | 2.0 | 4.0 | 0.00 | 0.00 | 0.00 | 70 | 1015.8 |
| 20260903115503 | 59 | 179 | 1.0 | 2.0 | 0.00 | 0.00 | 0.00 | 70 | 1015.7 |
| 20260903115403 | 59 | 186 | 1.0 | 2.0 | 0.00 | 0.00 | 0.00 | 70 | 1015.7 |
| 20260903115305 | 59 | 190 | 0.0 | 2.0 | 0.00 | 0.00 | 0.00 | 70 | 1015.8 |
| 20260903115203 | 59 | 193 | 1.0 | 2.0 | 0.00 | 0.00 | 0.00 | 70 | 1015.6 |
| 20260903115103 | 59 | 204 | 2.0 | 2.0 | 0.00 | 0.00 | 0.00 | 70 | 1015.5 |
| 20260903114903 | 59 | 194 | 1.0 | 4.0 | 0.00 | 0.00 | 0.00 | 70 | 1015.6 |
| 20260903114803 | 59 | 203 | 0.0 | 4.0 | 0.00 | 0.00 | 0.00 | 70 | 1015.9 |
| 20260903114703 | 59 | 204 | 1.0 | 4.0 | 0.00 | 0.00 | 0.00 | 70 | 1015.9 |
| 20260903114603 | 59 | 210 | 1.0 | 4.0 | 0.00 | 0.00 | 0.00 | 70 | 1015.6 |
| 20260903114503 | 59 | 219 | 1.0 | 4.0 | 0.00 | 0.00 | 0.00 | 70 | 1015.7 |
| 20260903114403 | 59 | 223 | 1.0 | 4.0 | 0.00 | 0.00 | 0.00 | 70 | 1015.6 |
| 20260903114318 | 59 | 227 | 2.0 | 4.0 | 0.00 | 0.00 | 0.00 | 70 | 1015.8 |
| 20260903114303 | 59 | 224 | 2.0 | 4.0 | 0.00 | 0.00 | 0.00 | 70 | 1015.9 |
| 20260903114218 | 59 | 226 | 1.0 | 4.0 | 0.00 | 0.00 | 0.00 | 70 | 1015.7 |
| 20260903114203 | 59 | 225 | 1.0 | 4.0 | 0.00 | 0.00 | 0.00 | 70 | 1015.7 |
| 20260903113903 | 59 | 209 | 3.0 | 4.0 | 0.00 | 0.00 | 0.00 | 70 | 1015.7 |
| 20260903113804 | 59 | 195 | 1.0 | 4.0 | 0.00 | 0.00 | 0.00 | 70 | 1015.8 |
| 20260903113717 | 59 | 199 | 1.0 | 4.0 | 0.00 | 0.00 | 0.00 | 70 | 1015.7 |
| 20260903113703 | 59 | 200 | 1.0 | 4.0 | 0.00 | 0.00 | 0.00 | 70 | 1015.7 |
| 20260903113603 | 59 | 211 | 1.0 | 4.0 | 0.00 | 0.00 | 0.00 | 70 | 1015.8 |
| 20260903113417 | 59 | 186 | 2.0 | 4.0 | 0.00 | 0.00 | 0.00 | 70 | 1015.7 |
| 20260903113403 | 59 | 188 | 2.0 | 4.0 | 0.00 | 0.00 | 0.00 | 70 | 1015.7 |
| 20260903113318 | 59 | 193 | 2.0 | 4.0 | 0.00 | 0.00 | 0.00 | 70 | 1015.7 |
| 20260903113303 | 59 | 191 | 2.0 | 4.0 | 0.00 | 0.00 | 0.00 | 70 | 1015.7 |
| 20260903113218 | 59 | 189 | 2.0 | 4.0 | 0.00 | 0.00 | 0.00 | 70 | 1015.7 |
| 20260903113117 | 59 | 186 | 2.0 | 4.0 | 0.00 | 0.00 | 0.00 | 70 | 1015.6 |
| 20260903113018 | 59 | 201 | 2.0 | 4.0 | 0.00 | 0.00 | 0.00 | 70 | 1015.9 |
| 20260903112703 | 59 | 223 | 2.0 | 4.0 | 0.00 | 0.00 | 0.00 | 70 | 1015.6 |
| 20260903112604 | 59 | 208 | 1.0 | 4.0 | 0.00 | 0.00 | 0.00 | 70 | 1015.5 |
| 20260903112503 | 59 | 200 | 1.0 | 4.0 | 0.00 | 0.00 | 0.00 | 70 | 1015.7 |
| 20260903112403 | 59 | 208 | 0.0 | 4.0 | 0.00 | 0.00 | 0.00 | 70 | 1015.2 |
| 20260903112306 | 59 | 216 | 2.0 | 4.0 | 0.00 | 0.00 | 0.00 | 70 | 1015.4 |
| 20260903112205 | 59 | 191 | 2.0 | 4.0 | 0.00 | 0.00 | 0.00 | 70 | 1015.5 |
| 20260903112103 | 59 | 198 | 2.0 | 4.0 | 0.00 | 0.00 | 0.00 | 70 | 1015.6 |
| 20260903112003 | 59 | 207 | 2.0 | 4.0 | 0.00 | 0.00 | 0.00 | 70 | 1015.7 |
| 20260903111918 | 59 | 210 | 1.0 | 4.0 | 0.00 | 0.00 | 0.00 | 70 | 1015.5 |
| 20260903111903 | 59 | 204 | 1.0 | 4.0 | 0.00 | 0.00 | 0.00 | 70 | 1015.5 |
| 20260903111803 | 59 | 191 | 2.0 | 4.0 | 0.00 | 0.00 | 0.00 | 70 | 1015.6 |
| 20260903111603 | 59 | 212 | 2.0 | 4.0 | 0.00 | 0.00 | 0.00 | 70 | 1015.4 |
| 20260903111503 | 59 | 201 | 2.0 | 4.0 | 0.00 | 0.00 | 0.00 | 70 | 1015.5 |
| 20260903111403 | 59 | 185 | 3.0 | 4.0 | 0.00 | 0.00 | 0.00 | 70 | 1015.4 |
| 20260903111303 | 59 | 187 | 3.0 | 4.0 | 0.00 | 0.00 | 0.00 | 70 | 1015.5 |
| 20260903111218 | 59 | 176 | 2.0 | 4.0 | 0.00 | 0.00 | 0.00 | 70 | 1015.2 |
| 20260903111207 | 59 | 170 | 2.0 | 4.0 | 0.00 | 0.00 | 0.00 | 70 | 1015.2 |
| 20260903111103 | 59 | 189 | 2.0 | 4.0 | 0.00 | 0.00 | 0.00 | 70 | 1015.0 |
| 20260903110918 | 59 | 216 | 2.0 | 4.0 | 0.00 | 0.00 | 0.00 | 70 | 1014.9 |
| 20260903110903 | 59 | 214 | 2.0 | 4.0 | 0.00 | 0.00 | 0.00 | 70 | 1014.9 |
| 20260903110803 | 59 | 223 | 1.0 | 4.0 | 0.00 | 0.00 | 0.00 | 70 | 1014.9 |
| 20260903110603 | 59 | 206 | 2.0 | 6.0 | 0.00 | 0.00 | 0.00 | 70 | 1015.0 |
| 20260903110503 | 59 | 198 | 2.0 | 7.0 | 0.00 | 0.00 | 0.00 | 70 | 1015.0 |
| 20260903110403 | 59 | 200 | 2.0 | 7.0 | 0.00 | 0.00 | 0.00 | 70 | 1015.1 |
| 20260903110303 | 59 | 203 | 2.0 | 7.0 | 0.00 | 0.00 | 0.00 | 70 | 1015.1 |
| 20260903110203 | 59 | 199 | 2.0 | 7.0 | 0.00 | 0.00 | 0.00 | 70 | 1015.1 |
| 20260903110103 | 59 | 193 | 3.0 | 7.0 | 0.00 | 0.00 | 0.00 | 70 | 1015.2 |
| 20260903110003 | 59 | 207 | 4.0 | 7.0 | 0.00 | 0.00 | 0.00 | 70 | 1015.1 |
| 20260903105905 | 59 | 228 | 2.0 | 8.0 | 0.00 | 0.00 | 0.00 | 70 | 1015.3 |
| 20260903105703 | 59 | 229 | 3.0 | 8.0 | 0.00 | 0.00 | 0.00 | 70 | 1015.2 |
| 20260903105622 | 59 | 232 | 3.0 | 8.0 | 0.00 | 0.00 | 0.00 | 70 | 1015.5 |
| 20260903105603 | 59 | 233 | 3.0 | 8.0 | 0.00 | 0.00 | 0.00 | 70 | 1015.5 |
| 20260903105503 | 59 | 217 | 4.0 | 8.0 | 0.00 | 0.00 | 0.00 | 69 | 1015.2 |
| 20260903105306 | 59 | 193 | 4.0 | 8.0 | 0.00 | 0.00 | 0.00 | 69 | 1015.3 |
| 20260903105203 | 59 | 197 | 4.0 | 7.0 | 0.00 | 0.00 | 0.00 | 69 | 1015.3 |
| 20260903105103 | 59 | 193 | 4.0 | 7.0 | 0.00 | 0.00 | 0.00 | 69 | 1015.1 |
| 20260903105003 | 59 | 204 | 4.0 | 7.0 | 0.00 | 0.00 | 0.00 | 69 | 1015.1 |
| 20260903104903 | 59 | 215 | 2.0 | 7.0 | 0.00 | 0.00 | 0.00 | 69 | 1015.4 |
| 20260903104803 | 59 | 203 | 2.0 | 7.0 | 0.00 | 0.00 | 0.00 | 69 | 1015.4 |
| 20260903104603 | 59 | 234 | 3.0 | 8.0 | 0.00 | 0.00 | 0.00 | 69 | 1015.2 |
| 20260903104503 | 59 | 238 | 2.0 | 8.0 | 0.00 | 0.00 | 0.00 | 69 | 1015.2 |
| 20260903104403 | 59 | 239 | 3.0 | 8.0 | 0.00 | 0.00 | 0.00 | 69 | 1015.2 |
| 20260903104303 | 59 | 248 | 3.0 | 8.0 | 0.00 | 0.00 | 0.00 | 69 | 1015.0 |
| 20260903104218 | 59 | 232 | 2.0 | 8.0 | 0.00 | 0.00 | 0.00 | 69 | 1015.0 |
| 20260903104203 | 59 | 226 | 2.0 | 8.0 | 0.00 | 0.00 | 0.00 | 69 | 1015.0 |
| 20260903104103 | 59 | 225 | 3.0 | 8.0 | 0.00 | 0.00 | 0.00 | 69 | 1014.8 |
| 20260903103903 | 59 | 231 | 1.0 | 11.0 | 0.00 | 0.00 | 0.00 | 69 | 1015.2 |
| 20260903103803 | 59 | 219 | 3.0 | 11.0 | 0.00 | 0.00 | 0.00 | 69 | 1014.9 |
| 20260903103717 | 59 | 221 | 2.0 | 11.0 | 0.00 | 0.00 | 0.00 | 69 | 1015.1 |
| 20260903103703 | 59 | 225 | 2.0 | 11.0 | 0.00 | 0.00 | 0.00 | 69 | 1015.1 |
| 20260903103603 | 59 | 216 | 3.0 | 11.0 | 0.00 | 0.00 | 0.00 | 69 | 1015.0 |
| 20260903103403 | 59 | 194 | 4.0 | 8.0 | 0.00 | 0.00 | 0.00 | 69 | 1015.0 |
| 20260903103303 | 59 | 191 | 2.0 | 7.0 | 0.00 | 0.00 | 0.00 | 69 | 1014.9 |
| 20260903103218 | 59 | 189 | 2.0 | 7.0 | 0.00 | 0.00 | 0.00 | 69 | 1015.0 |
| 20260903103203 | 59 | 188 | 2.0 | 7.0 | 0.00 | 0.00 | 0.00 | 69 | 1015.0 |
| 20260903103103 | 59 | 195 | 3.0 | 7.0 | 0.00 | 0.00 | 0.00 | 69 | 1014.7 |
| 20260903103017 | 59 | 206 | 2.0 | 6.0 | 0.00 | 0.00 | 0.00 | 70 | 1014.6 |
| 20260903102918 | 59 | 207 | 2.0 | 6.0 | 0.00 | 0.00 | 0.00 | 70 | 1014.8 |
| 20260903102903 | 59 | 210 | 2.0 | 6.0 | 0.00 | 0.00 | 0.00 | 70 | 1014.8 |
| 20260903102818 | 59 | 211 | 3.0 | 8.0 | 0.00 | 0.00 | 0.00 | 70 | 1014.8 |
| 20260903102503 | 59 | 192 | 2.0 | 8.0 | 0.00 | 0.00 | 0.00 | 70 | 1014.9 |
| 20260903102403 | 59 | 182 | 2.0 | 8.0 | 0.00 | 0.00 | 0.00 | 70 | 1015.0 |
| 20260903102305 | 59 | 192 | 3.0 | 6.0 | 0.00 | 0.00 | 0.00 | 70 | 1014.8 |
| 20260903102203 | 59 | 200 | 3.0 | 6.0 | 0.00 | 0.00 | 0.00 | 69 | 1014.7 |
| 20260903102103 | 59 | 258 | 2.0 | 6.0 | 0.00 | 0.00 | 0.00 | 69 | 1014.7 |
| 20260903102003 | 59 | 233 | 4.0 | 6.0 | 0.00 | 0.00 | 0.00 | 69 | 1014.8 |
| 20260903101903 | 59 | 245 | 1.0 | 7.0 | 0.00 | 0.00 | 0.00 | 69 | 1015.0 |
| 20260903101803 | 59 | 247 | 2.0 | 7.0 | 0.00 | 0.00 | 0.00 | 69 | 1014.8 |
| 20260903101717 | 59 | 235 | 0.0 | 8.0 | 0.00 | 0.00 | 0.00 | 69 | 1015.0 |
| 20260903101703 | 59 | 225 | 0.0 | 8.0 | 0.00 | 0.00 | 0.00 | 69 | 1015.0 |
| 20260903101603 | 59 | 225 | 2.0 | 8.0 | 0.00 | 0.00 | 0.00 | 69 | 1015.1 |
| 20260903101403 | 59 | 220 | 3.0 | 8.0 | 0.00 | 0.00 | 0.00 | 69 | 1014.9 |
| 20260903101304 | 59 | 221 | 2.0 | 8.0 | 0.00 | 0.00 | 0.00 | 69 | 1015.0 |
| 20260903101203 | 59 | 232 | 4.0 | 8.0 | 0.00 | 0.00 | 0.00 | 69 | 1014.8 |
| 20260903101003 | 59 | 228 | 4.0 | 8.0 | 0.00 | 0.00 | 0.00 | 69 | 1015.0 |
| 20260903100903 | 59 | 212 | 3.0 | 8.0 | 0.00 | 0.00 | 0.00 | 69 | 1015.0 |
| 20260903100803 | 59 | 201 | 5.0 | 8.0 | 0.00 | 0.00 | 0.00 | 69 | 1015.1 |
| 20260903100717 | 59 | 196 | 4.0 | 8.0 | 0.00 | 0.00 | 0.00 | 69 | 1014.8 |
| 20260903100703 | 59 | 197 | 4.0 | 9.0 | 0.00 | 0.00 | 0.00 | 69 | 1014.9 |
| 20260903100603 | 59 | 202 | 3.0 | 9.0 | 0.00 | 0.00 | 0.00 | 69 | 1014.9 |
| 20260903100403 | 59 | 217 | 4.0 | 9.0 | 0.00 | 0.00 | 0.00 | 68 | 1015.0 |
| 20260903100303 | 59 | 216 | 3.0 | 9.0 | 0.00 | 0.00 | 0.00 | 69 | 1014.8 |
| 20260903100203 | 59 | 203 | 4.0 | 9.0 | 0.00 | 0.00 | 0.00 | 69 | 1014.9 |
| 20260903100103 | 59 | 186 | 4.0 | 9.0 | 0.00 | 0.00 | 0.00 | 69 | 1014.7 |
| 20260903100003 | 59 | 191 | 2.0 | 9.0 | 0.00 | 0.00 | 0.00 | 69 | 1014.8 |
| 20260903095903 | 59 | 188 | 5.0 | 9.0 | 0.00 | 0.00 | 0.00 | 69 | 1014.8 |
| 20260903095818 | 59 | 201 | 3.0 | 9.0 | 0.00 | 0.00 | 0.00 | 69 | 1014.6 |
| 20260903095803 | 59 | 206 | 3.0 | 9.0 | 0.00 | 0.00 | 0.00 | 69 | 1014.6 |
| 20260903095703 | 59 | 217 | 5.0 | 9.0 | 0.00 | 0.00 | 0.00 | 69 | 1014.5 |
| 20260903095617 | 59 | 243 | 4.0 | 11.0 | 0.00 | 0.00 | 0.00 | 69 | 1014.7 |
| 20260903095503 | 59 | 258 | 4.0 | 11.0 | 0.00 | 0.00 | 0.00 | 68 | 1014.5 |
| 20260903095306 | 59 | 216 | 4.0 | 11.0 | 0.00 | 0.00 | 0.00 | 68 | 1014.2 |
| 20260903095218 | 59 | 219 | 2.0 | 11.0 | 0.00 | 0.00 | 0.00 | 68 | 1014.3 |
| 20260903095204 | 59 | 222 | 2.0 | 11.0 | 0.00 | 0.00 | 0.00 | 68 | 1014.3 |
| 20260903095103 | 59 | 214 | 4.0 | 11.0 | 0.00 | 0.00 | 0.00 | 68 | 1014.4 |
| 20260903094903 | 59 | 221 | 4.0 | 13.0 | 0.00 | 0.00 | 0.00 | 68 | 1014.3 |
| 20260903094803 | 59 | 220 | 4.0 | 13.0 | 0.00 | 0.00 | 0.00 | 68 | 1014.1 |
| 20260903094717 | 59 | 205 | 5.0 | 13.0 | 0.00 | 0.00 | 0.00 | 68 | 1014.1 |
| 20260903094703 | 59 | 205 | 3.0 | 13.0 | 0.00 | 0.00 | 0.00 | 68 | 1014.4 |
| 20260903094603 | 59 | 197 | 4.0 | 13.0 | 0.00 | 0.00 | 0.00 | 68 | 1014.0 |
| 20260903094403 | 59 | 202 | 5.0 | 13.0 | 0.00 | 0.00 | 0.00 | 68 | 1014.1 |
| 20260903094303 | 59 | 215 | 4.0 | 13.0 | 0.00 | 0.00 | 0.00 | 68 | 1013.9 |
| 20260903094203 | 59 | 213 | 5.0 | 13.0 | 0.00 | 0.00 | 0.00 | 68 | 1014.1 |
| 20260903094118 | 59 | 201 | 6.0 | 13.0 | 0.00 | 0.00 | 0.00 | 68 | 1013.9 |
| 20260903094103 | 59 | 199 | 6.0 | 13.0 | 0.00 | 0.00 | 0.00 | 68 | 1013.9 |
| 20260903094017 | 59 | 191 | 5.0 | 13.0 | 0.00 | 0.00 | 0.00 | 68 | 1014.0 |
| 20260903094003 | 59 | 185 | 5.0 | 13.0 | 0.00 | 0.00 | 0.00 | 68 | 1014.0 |
| 20260903093703 | 60 | 130 | 4.0 | 13.0 | 0.00 | 0.00 | 0.00 | 68 | 1013.7 |
| 20260903093603 | 60 | 129 | 4.0 | 13.0 | 0.00 | 0.00 | 0.00 | 68 | 1013.8 |
| 20260903093503 | 60 | 152 | 3.0 | 11.0 | 0.00 | 0.00 | 0.00 | 68 | 1013.6 |
| 20260903093403 | 60 | 199 | 4.0 | 11.0 | 0.00 | 0.00 | 0.00 | 68 | 1013.7 |
| 20260903093303 | 60 | 221 | 2.0 | 11.0 | 0.00 | 0.00 | 0.00 | 68 | 1013.5 |
| 20260903093203 | 60 | 209 | 6.0 | 13.0 | 0.00 | 0.00 | 0.00 | 68 | 1013.7 |
| 20260903093103 | 60 | 212 | 4.0 | 13.0 | 0.00 | 0.00 | 0.00 | 68 | 1013.6 |
| 20260903093003 | 60 | 194 | 4.0 | 13.0 | 0.00 | 0.00 | 0.00 | 68 | 1013.6 |
| 20260903092903 | 60 | 171 | 4.0 | 13.0 | 0.00 | 0.00 | 0.00 | 68 | 1013.6 |
| 20260903092803 | 60 | 171 | 2.0 | 13.0 | 0.00 | 0.00 | 0.00 | 67 | 1013.7 |
| 20260903092703 | 60 | 175 | 2.0 | 9.0 | 0.00 | 0.00 | 0.00 | 67 | 1013.7 |
| 20260903092603 | 60 | 181 | 4.0 | 9.0 | 0.00 | 0.00 | 0.00 | 67 | 1013.6 |
| 20260903092518 | 60 | 184 | 4.0 | 9.0 | 0.00 | 0.00 | 0.00 | 67 | 1013.9 |
| 20260903092503 | 60 | 187 | 4.0 | 9.0 | 0.00 | 0.00 | 0.00 | 67 | 1013.9 |
| 20260903092317 | 60 | 211 | 4.0 | 9.0 | 0.00 | 0.00 | 0.00 | 67 | 1013.6 |
| 20260903092203 | 60 | 203 | 2.0 | 14.0 | 0.00 | 0.00 | 0.00 | 67 | 1013.8 |
| 20260903092003 | 60 | 253 | 4.0 | 14.0 | 0.00 | 0.00 | 0.00 | 67 | 1013.6 |
| 20260903091903 | 60 | 281 | 4.0 | 14.0 | 0.00 | 0.00 | 0.00 | 67 | 1013.8 |
| 20260903091818 | 60 | 319 | 8.0 | 14.0 | 0.00 | 0.00 | 0.00 | 67 | 1013.5 |
| 20260903091803 | 60 | 310 | 8.0 | 14.0 | 0.00 | 0.00 | 0.00 | 67 | 1013.5 |
| 20260903091703 | 60 | 302 | 4.0 | 11.0 | 0.00 | 0.00 | 0.00 | 67 | 1013.6 |
| 20260903091503 | 60 | 324 | 4.0 | 11.0 | 0.00 | 0.00 | 0.00 | 67 | 1013.6 |
| 20260903091403 | 60 | 327 | 4.0 | 11.0 | 0.00 | 0.00 | 0.00 | 67 | 1013.6 |
| 20260903091303 | 60 | 227 | 4.0 | 9.0 | 0.00 | 0.00 | 0.00 | 67 | 1013.4 |
| 20260903091203 | 60 | 184 | 2.0 | 7.0 | 0.00 | 0.00 | 0.00 | 67 | 1013.5 |
| 20260903091103 | 60 | 166 | 3.0 | 7.0 | 0.00 | 0.00 | 0.00 | 67 | 1013.4 |
| 20260903091003 | 60 | 191 | 2.0 | 11.0 | 0.00 | 0.00 | 0.00 | 67 | 1013.4 |
| 20260903090903 | 60 | 173 | 4.0 | 11.0 | 0.00 | 0.00 | 0.00 | 66 | 1013.4 |
| 20260903090803 | 60 | 197 | 4.0 | 11.0 | 0.00 | 0.00 | 0.00 | 66 | 1013.7 |
| 20260903090717 | 60 | 211 | 2.0 | 11.0 | 0.00 | 0.00 | 0.00 | 66 | 1013.5 |
| 20260903090703 | 60 | 216 | 2.0 | 11.0 | 0.00 | 0.00 | 0.00 | 66 | 1013.6 |
| 20260903090603 | 60 | 216 | 4.0 | 11.0 | 0.00 | 0.00 | 0.00 | 66 | 1013.5 |
| 20260903090403 | 60 | 212 | 4.0 | 14.0 | 0.00 | 0.00 | 0.00 | 66 | 1013.3 |
| 20260903090303 | 60 | 189 | 2.0 | 14.0 | 0.00 | 0.00 | 0.00 | 66 | 1013.4 |
| 20260903090217 | 60 | 182 | 4.0 | 14.0 | 0.00 | 0.00 | 0.00 | 66 | 1013.3 |
| 20260903090203 | 60 | 181 | 4.0 | 14.0 | 0.00 | 0.00 | 0.00 | 66 | 1013.3 |
| 20260903090103 | 60 | 168 | 5.0 | 14.0 | 0.00 | 0.00 | 0.00 | 66 | 1013.5 |
| 20260903085903 | 60 | 156 | 5.0 | 11.0 | 0.00 | 0.00 | 0.00 | 66 | 1013.6 |
| 20260903085803 | 60 | 192 | 7.0 | 11.0 | 0.00 | 0.00 | 0.00 | 66 | 1013.3 |
| 20260903085703 | 60 | 182 | 6.0 | 11.0 | 0.00 | 0.00 | 0.00 | 66 | 1013.3 |
| 20260903085617 | 60 | 195 | 4.0 | 9.0 | 0.00 | 0.00 | 0.00 | 66 | 1013.6 |
| 20260903085603 | 60 | 206 | 4.0 | 9.0 | 0.00 | 0.00 | 0.00 | 66 | 1013.6 |
| 20260903085517 | 60 | 212 | 4.0 | 9.0 | 0.00 | 0.00 | 0.00 | 66 | 1013.4 |
| 20260903085503 | 60 | 202 | 4.0 | 9.0 | 0.00 | 0.00 | 0.00 | 66 | 1013.5 |
| 20260903085203 | 60 | 208 | 3.0 | 8.0 | 0.00 | 0.00 | 0.00 | 66 | 1013.4 |
| 20260903085103 | 60 | 217 | 4.0 | 14.0 | 0.00 | 0.00 | 0.00 | 66 | 1013.3 |
| 20260903085003 | 60 | 226 | 3.0 | 14.0 | 0.00 | 0.00 | 0.00 | 66 | 1013.2 |
| 20260903084903 | 60 | 228 | 3.0 | 14.0 | 0.00 | 0.00 | 0.00 | 66 | 1013.3 |
| 20260903084803 | 60 | 227 | 4.0 | 14.0 | 0.00 | 0.00 | 0.00 | 66 | 1013.2 |
| 20260903084703 | 60 | 232 | 6.0 | 14.0 | 0.00 | 0.00 | 0.00 | 66 | 1013.2 |
| 20260903084617 | 60 | 227 | 7.0 | 14.0 | 0.00 | 0.00 | 0.00 | 66 | 1013.3 |
| 20260903084603 | 60 | 218 | 7.0 | 14.0 | 0.00 | 0.00 | 0.00 | 66 | 1013.3 |
| 20260903084517 | 61 | 210 | 4.0 | 9.0 | 0.00 | 0.00 | 0.00 | 66 | 1013.3 |
| 20260903084503 | 61 | 214 | 4.0 | 9.0 | 0.00 | 0.00 | 0.00 | 66 | 1013.3 |
| 20260903084203 | 61 | 227 | 2.0 | 9.0 | 0.00 | 0.00 | 0.00 | 66 | 1013.3 |
| 20260903084103 | 61 | 217 | 5.0 | 9.0 | 0.00 | 0.00 | 0.00 | 66 | 1013.2 |
| 20260903084004 | 61 | 135 | 4.0 | 9.0 | 0.00 | 0.00 | 0.00 | 66 | 1013.2 |
| 20260903083921 | 61 | 152 | 2.0 | 9.0 | 0.00 | 0.00 | 0.00 | 66 | 1013.0 |
| 20260903083903 | 61 | 152 | 2.0 | 9.0 | 0.00 | 0.00 | 0.00 | 66 | 1012.9 |
| 20260903083818 | 61 | 144 | 3.0 | 9.0 | 0.00 | 0.00 | 0.00 | 66 | 1013.1 |
| 20260903083803 | 61 | 151 | 3.0 | 9.0 | 0.00 | 0.00 | 0.00 | 66 | 1013.1 |
| 20260903083503 | 61 | 197 | 4.0 | 8.0 | 0.00 | 0.00 | 0.00 | 65 | 1013.1 |
| 20260903083403 | 61 | 187 | 2.0 | 8.0 | 0.00 | 0.00 | 0.00 | 65 | 1012.9 |
| 20260903083303 | 61 | 175 | 3.0 | 8.0 | 0.00 | 0.00 | 0.00 | 65 | 1013.1 |
| 20260903083203 | 61 | 170 | 2.0 | 8.0 | 0.00 | 0.00 | 0.00 | 65 | 1013.0 |
| 20260903083103 | 61 | 159 | 4.0 | 9.0 | 0.00 | 0.00 | 0.00 | 65 | 1013.3 |
| 20260903083003 | 61 | 164 | 2.0 | 9.0 | 0.00 | 0.00 | 0.00 | 65 | 1012.9 |
| 20260903082903 | 61 | 176 | 2.0 | 9.0 | 0.00 | 0.00 | 0.00 | 65 | 1013.0 |
| 20260903082803 | 61 | 196 | 4.0 | 9.0 | 0.00 | 0.00 | 0.00 | 65 | 1012.8 |
| 20260903082718 | 61 | 234 | 4.0 | 9.0 | 0.00 | 0.00 | 0.00 | 65 | 1013.1 |
| 20260903082703 | 61 | 232 | 5.0 | 11.0 | 0.00 | 0.00 | 0.00 | 65 | 1013.0 |
| 20260903082603 | 61 | 240 | 5.0 | 11.0 | 0.00 | 0.00 | 0.00 | 65 | 1012.9 |
| 20260903082403 | 61 | 209 | 4.0 | 11.0 | 0.00 | 0.00 | 0.00 | 65 | 1012.8 |
| 20260903082316 | 61 | 193 | 3.0 | 11.0 | 0.00 | 0.00 | 0.00 | 65 | 1012.8 |
| 20260903082306 | 61 | 187 | 5.0 | 11.0 | 0.00 | 0.00 | 0.00 | 65 | 1012.9 |
| 20260903082203 | 61 | 173 | 4.0 | 11.0 | 0.00 | 0.00 | 0.00 | 65 | 1012.9 |
| 20260903082120 | 61 | 184 | 3.0 | 11.0 | 0.00 | 0.00 | 0.00 | 65 | 1013.1 |
| 20260903082003 | 61 | 191 | 4.0 | 11.0 | 0.00 | 0.00 | 0.00 | 64 | 1013.1 |
| 20260903081803 | 61 | 214 | 6.0 | 11.0 | 0.00 | 0.00 | 0.00 | 64 | 1012.7 |
| 20260903081703 | 61 | 213 | 4.0 | 11.0 | 0.00 | 0.00 | 0.00 | 64 | 1012.8 |
| 20260903081603 | 61 | 224 | 2.0 | 11.0 | 0.00 | 0.00 | 0.00 | 64 | 1012.8 |
| 20260903081517 | 61 | 210 | 5.0 | 11.0 | 0.00 | 0.00 | 0.00 | 64 | 1012.7 |
| 20260903081503 | 61 | 201 | 6.0 | 11.0 | 0.00 | 0.00 | 0.00 | 64 | 1012.6 |
| 20260903081403 | 62 | 175 | 3.0 | 11.0 | 0.00 | 0.00 | 0.00 | 64 | 1012.7 |
| 20260903081316 | 62 | 183 | 4.0 | 11.0 | 0.00 | 0.00 | 0.00 | 64 | 1012.7 |
| 20260903081203 | 62 | 189 | 4.0 | 11.0 | 0.00 | 0.00 | 0.00 | 64 | 1012.8 |
| 20260903081003 | 62 | 176 | 6.0 | 13.0 | 0.00 | 0.00 | 0.00 | 64 | 1012.6 |
| 20260903080903 | 62 | 175 | 5.0 | 13.0 | 0.00 | 0.00 | 0.00 | 64 | 1012.6 |
| 20260903080803 | 62 | 173 | 5.0 | 13.0 | 0.00 | 0.00 | 0.00 | 63 | 1012.6 |
| 20260903080718 | 62 | 176 | 6.0 | 13.0 | 0.00 | 0.00 | 0.00 | 63 | 1012.6 |
| 20260903080703 | 62 | 174 | 5.0 | 13.0 | 0.00 | 0.00 | 0.00 | 63 | 1012.3 |
| 20260903080603 | 62 | 200 | 5.0 | 11.0 | 0.00 | 0.00 | 0.00 | 63 | 1012.3 |
| 20260903080517 | 62 | 206 | 2.0 | 8.0 | 0.00 | 0.00 | 0.00 | 63 | 1012.5 |
| 20260903080403 | 62 | 196 | 2.0 | 9.0 | 0.00 | 0.00 | 0.00 | 63 | 1012.3 |
| 20260903080203 | 62 | 204 | 3.0 | 13.0 | 0.00 | 0.00 | 0.00 | 63 | 1012.4 |
| 20260903080103 | 62 | 191 | 2.0 | 13.0 | 0.00 | 0.00 | 0.00 | 63 | 1012.0 |
| 20260903080003 | 62 | 173 | 4.0 | 13.0 | 0.00 | 0.00 | 0.00 | 63 | 1012.0 |
| 20260903075903 | 62 | 193 | 5.0 | 13.0 | 0.00 | 0.00 | 0.00 | 63 | 1011.9 |
| 20260903075803 | 62 | 169 | 4.0 | 11.0 | 0.00 | 0.00 | 0.00 | 63 | 1012.3 |
| 20260903075703 | 62 | 140 | 5.0 | 14.0 | 0.00 | 0.00 | 0.00 | 63 | 1012.0 |
| 20260903075603 | 62 | 127 | 3.0 | 14.0 | 0.00 | 0.00 | 0.00 | 63 | 1012.3 |
| 20260903075503 | 62 | 128 | 4.0 | 14.0 | 0.00 | 0.00 | 0.00 | 62 | 1012.0 |
| 20260903075403 | 62 | 132 | 4.0 | 14.0 | 0.00 | 0.00 | 0.00 | 62 | 1012.1 |
| 20260903075318 | 62 | 124 | 4.0 | 14.0 | 0.00 | 0.00 | 0.00 | 62 | 1012.1 |
| 20260903075306 | 62 | 117 | 4.0 | 14.0 | 0.00 | 0.00 | 0.00 | 62 | 1012.1 |
| 20260903075203 | 62 | 171 | 6.0 | 14.0 | 0.00 | 0.00 | 0.00 | 62 | 1012.0 |
| 20260903075118 | 62 | 216 | 4.0 | 14.0 | 0.00 | 0.00 | 0.00 | 62 | 1012.0 |
| 20260903075003 | 62 | 195 | 2.0 | 11.0 | 0.00 | 0.00 | 0.00 | 62 | 1012.0 |
| 20260903074817 | 62 | 198 | 4.0 | 9.0 | 0.00 | 0.00 | 0.00 | 62 | 1011.9 |
| 20260903074809 | 62 | 205 | 4.0 | 9.0 | 0.00 | 0.00 | 0.00 | 62 | 1011.9 |
| 20260903074703 | 62 | 199 | 4.0 | 11.0 | 0.00 | 0.00 | 0.00 | 62 | 1011.6 |
| 20260903074517 | 62 | 151 | 3.0 | 17.0 | 0.00 | 0.00 | 0.00 | 62 | 1011.7 |
| 20260903074503 | 62 | 150 | 3.0 | 17.0 | 0.00 | 0.00 | 0.00 | 62 | 1011.7 |
| 20260903074403 | 62 | 153 | 2.0 | 17.0 | 0.00 | 0.00 | 0.00 | 62 | 1011.6 |
| 20260903074217 | 62 | 156 | 5.0 | 17.0 | 0.00 | 0.00 | 0.00 | 62 | 1011.6 |
| 20260903074203 | 62 | 154 | 5.0 | 17.0 | 0.00 | 0.00 | 0.00 | 62 | 1011.6 |
| 20260903074117 | 62 | 156 | 6.0 | 17.0 | 0.00 | 0.00 | 0.00 | 62 | 1011.7 |
| 20260903074103 | 62 | 164 | 6.0 | 17.0 | 0.00 | 0.00 | 0.00 | 62 | 1011.7 |
| 20260903073919 | 62 | 184 | 4.0 | 9.0 | 0.00 | 0.00 | 0.00 | 62 | 1011.5 |
| 20260903073803 | 62 | 185 | 2.0 | 11.0 | 0.00 | 0.00 | 0.00 | 62 | 1011.6 |
| 20260903073604 | 62 | 129 | 4.0 | 11.0 | 0.00 | 0.00 | 0.00 | 61 | 1011.4 |
| 20260903073517 | 62 | 150 | 4.0 | 11.0 | 0.00 | 0.00 | 0.00 | 62 | 1011.6 |
| 20260903073503 | 62 | 139 | 5.0 | 11.0 | 0.00 | 0.00 | 0.00 | 61 | 1011.4 |
| 20260903073403 | 63 | 154 | 4.0 | 11.0 | 0.00 | 0.00 | 0.00 | 61 | 1011.5 |
| 20260903073318 | 63 | 113 | 4.0 | 11.0 | 0.00 | 0.00 | 0.00 | 61 | 1011.5 |
| 20260903073203 | 63 | 26 | 4.0 | 11.0 | 0.00 | 0.00 | 0.00 | 61 | 1011.3 |
| 20260903073003 | 63 | 72 | 3.0 | 14.0 | 0.00 | 0.00 | 0.00 | 61 | 1011.5 |
| 20260903072903 | 63 | 73 | 3.0 | 15.0 | 0.00 | 0.00 | 0.00 | 61 | 1011.7 |
| 20260903072803 | 63 | 85 | 5.0 | 15.0 | 0.00 | 0.00 | 0.00 | 61 | 1011.3 |
| 20260903072703 | 63 | 105 | 4.0 | 15.0 | 0.00 | 0.00 | 0.00 | 61 | 1011.3 |
| 20260903072603 | 63 | 114 | 4.0 | 15.0 | 0.00 | 0.00 | 0.00 | 61 | 1011.4 |
| 20260903072503 | 63 | 151 | 6.0 | 15.0 | 0.00 | 0.00 | 0.00 | 60 | 1011.4 |
| 20260903072403 | 63 | 163 | 7.0 | 15.0 | 0.00 | 0.00 | 0.00 | 60 | 1011.3 |
| 20260903072306 | 63 | 144 | 4.0 | 13.0 | 0.00 | 0.00 | 0.00 | 61 | 1011.2 |
| 20260903072217 | 63 | 176 | 7.0 | 13.0 | 0.00 | 0.00 | 0.00 | 61 | 1011.4 |
| 20260903072203 | 63 | 175 | 7.0 | 13.0 | 0.00 | 0.00 | 0.00 | 61 | 1011.4 |
| 20260903072117 | 63 | 166 | 4.0 | 13.0 | 0.00 | 0.00 | 0.00 | 61 | 1011.4 |
| 20260903072103 | 63 | 168 | 4.0 | 13.0 | 0.00 | 0.00 | 0.00 | 61 | 1011.4 |
| 20260903071917 | 63 | 137 | 4.0 | 13.0 | 0.00 | 0.00 | 0.00 | 61 | 1011.5 |
| 20260903071803 | 63 | 131 | 4.0 | 13.0 | 0.00 | 0.00 | 0.00 | 61 | 1011.6 |
| 20260903071603 | 63 | 116 | 4.0 | 13.0 | 0.00 | 0.00 | 0.00 | 61 | 1011.5 |
| 20260903071503 | 63 | 167 | 4.0 | 11.0 | 0.00 | 0.00 | 0.00 | 61 | 1011.4 |
| 20260903071403 | 63 | 201 | 2.0 | 11.0 | 0.00 | 0.00 | 0.00 | 61 | 1011.5 |
| 20260903071303 | 63 | 224 | 5.0 | 11.0 | 0.00 | 0.00 | 0.00 | 61 | 1011.4 |
| 20260903071203 | 63 | 248 | 4.0 | 11.0 | 0.00 | 0.00 | 0.00 | 61 | 1011.6 |
| 20260903071103 | 63 | 254 | 4.0 | 11.0 | 0.00 | 0.00 | 0.00 | 61 | 1011.3 |
| 20260903071003 | 63 | 212 | 5.0 | 11.0 | 0.00 | 0.00 | 0.00 | 61 | 1011.5 |
| 20260903070903 | 63 | 141 | 2.0 | 11.0 | 0.00 | 0.00 | 0.00 | 61 | 1011.7 |
| 20260903070803 | 63 | 137 | 4.0 | 11.0 | 0.00 | 0.00 | 0.00 | 61 | 1011.4 |
| 20260903070718 | 63 | 144 | 2.0 | 11.0 | 0.00 | 0.00 | 0.00 | 61 | 1011.6 |
| 20260903070703 | 63 | 142 | 3.0 | 11.0 | 0.00 | 0.00 | 0.00 | 61 | 1011.6 |
| 20260903070603 | 63 | 123 | 5.0 | 11.0 | 0.00 | 0.00 | 0.00 | 61 | 1011.4 |
| 20260903070403 | 63 | 126 | 3.0 | 14.0 | 0.00 | 0.00 | 0.00 | 61 | 1011.6 |
| 20260903070303 | 63 | 146 | 2.0 | 14.0 | 0.00 | 0.00 | 0.00 | 61 | 1011.2 |
| 20260903070203 | 63 | 119 | 2.0 | 14.0 | 0.00 | 0.00 | 0.00 | 61 | 1011.4 |
| 20260903070117 | 63 | 143 | 2.0 | 14.0 | 0.00 | 0.00 | 0.00 | 61 | 1011.4 |
| 20260903070103 | 63 | 170 | 2.0 | 14.0 | 0.00 | 0.00 | 0.00 | 61 | 1011.4 |
| 20260903070008 | 63 | 95 | 4.0 | 14.0 | 0.00 | 0.00 | 0.00 | 60 | 1011.4 |
| 20260903065803 | 63 | 88 | 4.0 | 13.0 | 0.00 | 0.00 | 0.00 | 61 | 1011.4 |
| 20260903065703 | 63 | 99 | 4.0 | 13.0 | 0.00 | 0.00 | 0.00 | 61 | 1011.5 |
| 20260903065603 | 63 | 81 | 4.0 | 13.0 | 0.00 | 0.00 | 0.00 | 61 | 1011.4 |
| 20260903065503 | 63 | 94 | 6.0 | 13.0 | 0.00 | 0.00 | 0.00 | 61 | 1011.6 |
| 20260903065403 | 63 | 101 | 5.0 | 13.0 | 0.00 | 0.00 | 0.00 | 60 | 1011.5 |
| 20260903065306 | 63 | 140 | 6.0 | 13.0 | 0.00 | 0.00 | 0.00 | 61 | 1011.6 |
| 20260903065203 | 63 | 163 | 2.0 | 11.0 | 0.00 | 0.00 | 0.00 | 61 | 1011.5 |
| 20260903065103 | 63 | 207 | 5.0 | 11.0 | 0.00 | 0.00 | 0.00 | 61 | 1011.5 |
| 20260903065018 | 63 | 230 | 2.0 | 11.0 | 0.00 | 0.00 | 0.00 | 61 | 1011.7 |
| 20260903065003 | 63 | 238 | 2.0 | 11.0 | 0.00 | 0.00 | 0.00 | 61 | 1011.7 |
| 20260903064903 | 63 | 247 | 5.0 | 11.0 | 0.00 | 0.00 | 0.00 | 61 | 1011.7 |
| 20260903064703 | 63 | 213 | 5.0 | 11.0 | 0.00 | 0.00 | 0.00 | 62 | 1011.8 |
| 20260903064603 | 63 | 159 | 3.0 | 11.0 | 0.00 | 0.00 | 0.00 | 62 | 1011.6 |
| 20260903064503 | 63 | 162 | 4.0 | 11.0 | 0.00 | 0.00 | 0.00 | 62 | 1011.5 |
| 20260903064403 | 63 | 213 | 3.0 | 11.0 | 0.00 | 0.00 | 0.00 | 62 | 1011.7 |
| 20260903064318 | 63 | 60 | 4.0 | 11.0 | 0.00 | 0.00 | 0.00 | 62 | 1011.8 |
| 20260903064303 | 63 | 42 | 4.0 | 14.0 | 0.00 | 0.00 | 0.00 | 62 | 1011.7 |
| 20260903064203 | 63 | 286 | 4.0 | 14.0 | 0.00 | 0.00 | 0.00 | 62 | 1011.9 |
| 20260903064003 | 63 | 177 | 5.0 | 14.0 | 0.00 | 0.00 | 0.00 | 62 | 1011.8 |
| 20260903063903 | 63 | 171 | 4.0 | 14.0 | 0.00 | 0.00 | 0.00 | 62 | 1011.8 |
| 20260903063803 | 63 | 200 | 6.0 | 14.0 | 0.00 | 0.00 | 0.00 | 62 | 1011.8 |
| 20260903063717 | 63 | 202 | 2.0 | 13.0 | 0.00 | 0.00 | 0.00 | 62 | 1011.8 |
| 20260903063703 | 63 | 201 | 2.0 | 13.0 | 0.00 | 0.00 | 0.00 | 62 | 1011.8 |
| 20260903063603 | 63 | 199 | 4.0 | 13.0 | 0.00 | 0.00 | 0.00 | 62 | 1011.7 |
| 20260903063417 | 63 | 209 | 4.0 | 11.0 | 0.00 | 0.00 | 0.00 | 62 | 1011.8 |
| 20260903063403 | 63 | 217 | 4.0 | 11.0 | 0.00 | 0.00 | 0.00 | 62 | 1011.8 |
| 20260903063303 | 64 | 204 | 6.0 | 11.0 | 0.00 | 0.00 | 0.00 | 62 | 1011.6 |
| 20260903063103 | 64 | 187 | 2.0 | 11.0 | 0.00 | 0.00 | 0.00 | 62 | 1011.8 |
| 20260903063003 | 64 | 167 | 4.0 | 11.0 | 0.00 | 0.00 | 0.00 | 62 | 1011.8 |
| 20260903062903 | 64 | 143 | 4.0 | 11.0 | 0.00 | 0.00 | 0.00 | 61 | 1011.6 |
| 20260903062803 | 64 | 141 | 3.0 | 11.0 | 0.00 | 0.00 | 0.00 | 62 | 1011.5 |
| 20260903062703 | 64 | 139 | 3.0 | 11.0 | 0.00 | 0.00 | 0.00 | 61 | 1011.7 |
| 20260903062603 | 64 | 131 | 4.0 | 11.0 | 0.00 | 0.00 | 0.00 | 61 | 1011.7 |
| 20260903062503 | 64 | 119 | 4.0 | 11.0 | 0.00 | 0.00 | 0.00 | 61 | 1011.7 |
| 20260903062417 | 64 | 113 | 4.0 | 13.0 | 0.00 | 0.00 | 0.00 | 61 | 1011.7 |
| 20260903062403 | 64 | 112 | 4.0 | 13.0 | 0.00 | 0.00 | 0.00 | 61 | 1011.7 |
| 20260903062306 | 64 | 131 | 6.0 | 15.0 | 0.00 | 0.00 | 0.00 | 61 | 1011.7 |
| 20260903062117 | 64 | 130 | 4.0 | 15.0 | 0.00 | 0.00 | 0.00 | 61 | 1011.6 |
| 20260903062103 | 64 | 162 | 4.0 | 15.0 | 0.00 | 0.00 | 0.00 | 61 | 1011.6 |
| 20260903062003 | 64 | 180 | 4.0 | 15.0 | 0.00 | 0.00 | 0.00 | 61 | 1011.6 |
| 20260903061803 | 64 | 198 | 4.0 | 13.0 | 0.00 | 0.00 | 0.00 | 60 | 1011.5 |
| 20260903061703 | 64 | 189 | 4.0 | 13.0 | 0.00 | 0.00 | 0.00 | 60 | 1011.5 |
| 20260903061618 | 64 | 174 | 4.0 | 13.0 | 0.00 | 0.00 | 0.00 | 60 | 1011.8 |
| 20260903061603 | 64 | 166 | 4.0 | 13.0 | 0.00 | 0.00 | 0.00 | 60 | 1011.8 |
| 20260903061503 | 64 | 129 | 5.0 | 13.0 | 0.00 | 0.00 | 0.00 | 60 | 1011.8 |
| 20260903061318 | 64 | 117 | 3.0 | 13.0 | 0.00 | 0.00 | 0.00 | 60 | 1011.3 |
| 20260903061303 | 64 | 125 | 3.0 | 13.0 | 0.00 | 0.00 | 0.00 | 60 | 1011.3 |
| 20260903061203 | 64 | 165 | 4.0 | 15.0 | 0.00 | 0.00 | 0.00 | 60 | 1011.6 |
| 20260903061003 | 64 | 190 | 2.0 | 15.0 | 0.00 | 0.00 | 0.00 | 60 | 1011.8 |
| 20260903060903 | 64 | 166 | 3.0 | 15.0 | 0.00 | 0.00 | 0.00 | 60 | 1011.5 |
| 20260903060803 | 64 | 182 | 5.0 | 15.0 | 0.00 | 0.00 | 0.00 | 59 | 1011.7 |
| 20260903060717 | 64 | 165 | 7.0 | 15.0 | 0.00 | 0.00 | 0.00 | 60 | 1011.8 |
| 20260903060703 | 64 | 164 | 3.0 | 14.0 | 0.00 | 0.00 | 0.00 | 60 | 1011.7 |
| 20260903060603 | 64 | 174 | 4.0 | 14.0 | 0.00 | 0.00 | 0.00 | 60 | 1011.8 |
| 20260903060403 | 64 | 173 | 4.0 | 14.0 | 0.00 | 0.00 | 0.00 | 60 | 1011.5 |
| 20260903060303 | 64 | 153 | 7.0 | 14.0 | 0.00 | 0.00 | 0.00 | 59 | 1011.6 |
| 20260903060218 | 64 | 155 | 4.0 | 13.0 | 0.00 | 0.00 | 0.00 | 59 | 1011.7 |
| 20260903060203 | 64 | 157 | 4.0 | 13.0 | 0.00 | 0.00 | 0.00 | 59 | 1011.7 |
| 20260903060103 | 64 | 137 | 5.0 | 14.0 | 0.00 | 0.00 | 0.00 | 59 | 1011.7 |
| 20260903055903 | 64 | 201 | 6.0 | 16.0 | 0.00 | 0.00 | 0.00 | 60 | 1011.7 |
| 20260903055803 | 64 | 215 | 6.0 | 16.0 | 0.00 | 0.00 | 0.00 | 60 | 1011.7 |
| 20260903055703 | 65 | 208 | 5.0 | 16.0 | 0.00 | 0.00 | 0.00 | 60 | 1011.7 |
| 20260903055603 | 65 | 209 | 4.0 | 16.0 | 0.00 | 0.00 | 0.00 | 60 | 1011.7 |
| 20260903055503 | 65 | 198 | 8.0 | 16.0 | 0.00 | 0.00 | 0.00 | 60 | 1011.5 |
| 20260903055403 | 65 | 169 | 8.0 | 14.0 | 0.00 | 0.00 | 0.00 | 60 | 1011.4 |
| 20260903055306 | 65 | 151 | 8.0 | 14.0 | 0.00 | 0.00 | 0.00 | 61 | 1011.7 |
| 20260903055203 | 65 | 153 | 6.0 | 14.0 | 0.00 | 0.00 | 0.00 | 61 | 1011.4 |
| 20260903055103 | 65 | 124 | 4.0 | 13.0 | 0.00 | 0.00 | 0.00 | 61 | 1011.2 |
| 20260903055003 | 65 | 142 | 7.0 | 13.0 | 0.00 | 0.00 | 0.00 | 62 | 1011.3 |
| 20260903054903 | 65 | 152 | 5.0 | 13.0 | 0.00 | 0.00 | 0.00 | 62 | 1011.4 |
| 20260903054803 | 65 | 176 | 4.0 | 13.0 | 0.00 | 0.00 | 0.00 | 62 | 1011.3 |
| 20260903054704 | 65 | 169 | 8.0 | 20.0 | 0.00 | 0.00 | 0.00 | 63 | 1011.2 |
| 20260903054603 | 65 | 186 | 4.0 | 20.0 | 0.00 | 0.00 | 0.00 | 63 | 1011.3 |
| 20260903054503 | 65 | 183 | 4.0 | 20.0 | 0.00 | 0.00 | 0.00 | 64 | 1011.3 |
| 20260903054403 | 65 | 187 | 4.0 | 20.0 | 0.00 | 0.00 | 0.00 | 64 | 1011.1 |
| 20260903054303 | 65 | 175 | 8.0 | 20.0 | 0.00 | 0.00 | 0.00 | 64 | 1011.1 |
| 20260903054218 | 65 | 171 | 10.0 | 20.0 | 0.00 | 0.00 | 0.00 | 64 | 1011.2 |
| 20260903054203 | 65 | 168 | 10.0 | 20.0 | 0.00 | 0.00 | 0.00 | 64 | 1011.2 |
| 20260903054117 | 65 | 162 | 4.0 | 13.0 | 0.00 | 0.00 | 0.00 | 66 | 1010.9 |
| 20260903054103 | 65 | 161 | 4.0 | 13.0 | 0.00 | 0.00 | 0.00 | 66 | 1010.9 |
| 20260903054017 | 65 | 169 | 4.0 | 13.0 | 0.00 | 0.00 | 0.00 | 66 | 1011.2 |
| 20260903053704 | 64 | 170 | 4.0 | 13.0 | 0.00 | 0.00 | 0.00 | 69 | 1011.2 |
| 20260903053603 | 64 | 158 | 5.0 | 13.0 | 0.00 | 0.00 | 0.00 | 69 | 1011.4 |
| 20260903053503 | 64 | 159 | 4.0 | 13.0 | 0.00 | 0.00 | 0.00 | 71 | 1011.1 |
| 20260903053403 | 64 | 189 | 4.0 | 13.0 | 0.00 | 0.00 | 0.00 | 72 | 1011.1 |
| 20260903053303 | 64 | 199 | 6.0 | 13.0 | 0.00 | 0.00 | 0.00 | 73 | 1011.2 |
| 20260903053203 | 64 | 219 | 5.0 | 11.0 | 0.00 | 0.00 | 0.00 | 74 | 1011.1 |
| 20260903053103 | 64 | 231 | 4.0 | 11.0 | 0.00 | 0.00 | 0.00 | 76 | 1011.2 |
| 20260903053003 | 64 | 225 | 4.0 | 11.0 | 0.00 | 0.00 | 0.00 | 77 | 1011.0 |
| 20260903052903 | 64 | 221 | 5.0 | 11.0 | 0.00 | 0.00 | 0.00 | 77 | 1011.2 |
| 20260903052803 | 64 | 216 | 4.0 | 11.0 | 0.00 | 0.00 | 0.00 | 78 | 1011.3 |
| 20260903052703 | 64 | 205 | 4.0 | 14.0 | 0.00 | 0.00 | 0.00 | 79 | 1011.0 |
| 20260903052618 | 64 | 202 | 5.0 | 14.0 | 0.00 | 0.00 | 0.00 | 80 | 1011.2 |
| 20260903052503 | 64 | 211 | 6.0 | 14.0 | 0.00 | 0.00 | 0.00 | 80 | 1011.1 |
| 20260903052306 | 64 | 196 | 6.0 | 14.0 | 0.00 | 0.00 | 0.00 | 81 | 1011.3 |
| 20260903052208 | 64 | 197 | 6.0 | 14.0 | 0.00 | 0.00 | 0.00 | 82 | 1011.3 |
| 20260903052103 | 64 | 211 | 6.0 | 11.0 | 0.00 | 0.00 | 0.00 | 82 | 1011.1 |
| 20260903051903 | 65 | 236 | 4.0 | 11.0 | 0.00 | 0.00 | 0.00 | 83 | 1011.2 |
| 20260903051803 | 65 | 262 | 5.0 | 11.0 | 0.00 | 0.00 | 0.00 | 83 | 1011.1 |
| 20260903051703 | 65 | 265 | 5.0 | 11.0 | 0.00 | 0.00 | 0.00 | 83 | 1011.2 |
| 20260903051603 | 65 | 264 | 3.0 | 11.0 | 0.00 | 0.00 | 0.00 | 83 | 1011.2 |
| 20260903051518 | 65 | 264 | 4.0 | 11.0 | 0.00 | 0.00 | 0.00 | 83 | 1011.0 |
| 20260903051503 | 65 | 257 | 4.0 | 11.0 | 0.00 | 0.00 | 0.00 | 83 | 1010.9 |
| 20260903051403 | 65 | 251 | 6.0 | 11.0 | 0.00 | 0.00 | 0.00 | 83 | 1011.0 |
| 20260903051317 | 65 | 231 | 6.0 | 11.0 | 0.00 | 0.00 | 0.00 | 83 | 1010.8 |
| 20260903051204 | 65 | 230 | 4.0 | 9.0 | 0.00 | 0.00 | 0.00 | 83 | 1011.1 |
| 20260903051116 | 65 | 240 | 4.0 | 8.0 | 0.00 | 0.00 | 0.00 | 83 | 1010.7 |
| 20260903051003 | 65 | 238 | 4.0 | 11.0 | 0.00 | 0.00 | 0.00 | 83 | 1010.7 |
| 20260903050804 | 65 | 250 | 3.0 | 11.0 | 0.00 | 0.00 | 0.00 | 83 | 1010.9 |
| 20260903050703 | 65 | 247 | 4.0 | 11.0 | 0.00 | 0.00 | 0.00 | 83 | 1010.7 |
| 20260903050603 | 65 | 239 | 4.0 | 11.0 | 0.00 | 0.00 | 0.00 | 84 | 1010.8 |
| 20260903050503 | 65 | 222 | 5.0 | 11.0 | 0.00 | 0.00 | 0.00 | 84 | 1010.6 |
| 20260903050403 | 65 | 207 | 4.0 | 8.0 | 0.00 | 0.00 | 0.00 | 84 | 1010.8 |
| 20260903050303 | 66 | 221 | 2.0 | 6.0 | 0.00 | 0.00 | 0.00 | 85 | 1010.9 |
| 20260903050203 | 66 | 218 | 2.0 | 6.0 | 0.00 | 0.00 | 0.00 | 85 | 1010.8 |
| 20260903050003 | 66 | 227 | 3.0 | 6.0 | 0.00 | 0.00 | 0.00 | 85 | 1010.5 |
| 20260903045903 | 66 | 240 | 2.0 | 6.0 | 0.00 | 0.00 | 0.00 | 85 | 1010.7 |
| 20260903045803 | 66 | 239 | 2.0 | 6.0 | 0.00 | 0.00 | 0.00 | 85 | 1010.4 |
| 20260903045703 | 66 | 237 | 2.0 | 6.0 | 0.00 | 0.00 | 0.00 | 86 | 1010.5 |
| 20260903045518 | 66 | 220 | 2.0 | 6.0 | 0.00 | 0.00 | 0.00 | 86 | 1010.8 |
| 20260903045503 | 66 | 219 | 2.0 | 8.0 | 0.00 | 0.00 | 0.00 | 86 | 1010.4 |
| 20260903045403 | 66 | 215 | 3.0 | 8.0 | 0.00 | 0.00 | 0.00 | 86 | 1010.7 |
| 20260903045319 | 66 | 214 | 3.0 | 8.0 | 0.00 | 0.00 | 0.00 | 86 | 1010.5 |
| 20260903045203 | 66 | 219 | 2.0 | 8.0 | 0.00 | 0.00 | 0.00 | 86 | 1010.6 |
| 20260903045005 | 66 | 235 | 2.0 | 8.0 | 0.00 | 0.00 | 0.00 | 86 | 1010.9 |
| 20260903044905 | 66 | 234 | 2.0 | 4.0 | 0.00 | 0.00 | 0.00 | 87 | 1011.2 |
| 20260903044803 | 66 | 233 | 2.0 | 9.0 | 0.00 | 0.00 | 0.00 | 87 | 1010.8 |
| 20260903044703 | 66 | 249 | 2.0 | 17.0 | 0.00 | 0.00 | 0.00 | 87 | 1011.0 |
| 20260903044606 | 65 | 245 | 2.0 | 17.0 | 0.00 | 0.00 | 0.00 | 87 | 1010.8 |
| 20260903044518 | 65 | 244 | 3.0 | 17.0 | 0.00 | 0.00 | 0.00 | 87 | 1010.7 |
| 20260903044503 | 65 | 246 | 3.0 | 17.0 | 0.00 | 0.00 | 0.00 | 87 | 1010.7 |
| 20260903044403 | 65 | 240 | 2.0 | 17.0 | 0.00 | 0.00 | 0.00 | 88 | 1010.8 |
| 20260903044203 | 65 | 235 | 8.0 | 17.0 | 0.00 | 0.00 | 0.00 | 89 | 1011.2 |
| 20260903044103 | 65 | 235 | 4.0 | 11.0 | 0.00 | 0.00 | 0.00 | 89 | 1011.1 |
| 20260903044003 | 65 | 235 | 7.0 | 11.0 | 0.00 | 0.00 | 0.00 | 89 | 1011.3 |
| 20260903043903 | 65 | 247 | 5.0 | 8.0 | 0.00 | 0.00 | 0.00 | 90 | 1011.0 |
| 20260903043803 | 65 | 243 | 4.0 | 6.0 | 0.00 | 0.00 | 0.00 | 90 | 1010.9 |
| 20260903043703 | 65 | 225 | 2.0 | 4.0 | 0.00 | 0.00 | 0.00 | 90 | 1010.4 |
| 20260903043603 | 65 | 225 | 1.0 | 2.0 | 0.00 | 0.00 | 0.00 | 90 | 1010.2 |
| 20260903043503 | 65 | 0 | 0.0 | 0.0 | 0.00 | 0.00 | 0.00 | 90 | 1009.8 |
| 20260903043403 | 65 | 0 | 0.0 | 0.0 | 0.00 | 0.00 | 0.00 | 90 | 1009.9 |
| 20260903043303 | 65 | 0 | 0.0 | 0.0 | 0.00 | 0.00 | 0.00 | 90 | 1009.9 |
| 20260903043203 | 65 | 0 | 0.0 | 0.0 | 0.00 | 0.00 | 0.00 | 90 | 1010.0 |
| 20260903043103 | 65 | 0 | 0.0 | 0.0 | 0.00 | 0.00 | 0.00 | 90 | 1009.9 |
| 20260903043003 | 65 | 0 | 0.0 | 0.0 | 0.00 | 0.00 | 0.00 | 90 | 1009.9 |
| 20260903042903 | 65 | 0 | 0.0 | 0.0 | 0.00 | 0.00 | 0.00 | 89 | 1009.9 |
| 20260903042818 | 65 | 0 | 0.0 | 0.0 | 0.00 | 0.00 | 0.00 | 90 | 1010.0 |
| 20260903042703 | 65 | 0 | 0.0 | 0.0 | 0.00 | 0.00 | 0.00 | 89 | 1009.8 |
| 20260903042503 | 65 | 0 | 0.0 | 0.0 | 0.00 | 0.00 | 0.00 | 89 | 1010.0 |
| 20260903042403 | 65 | 0 | 0.0 | 0.0 | 0.00 | 0.00 | 0.00 | 89 | 1010.0 |
| 20260903042306 | 65 | 0 | 0.0 | 0.0 | 0.00 | 0.00 | 0.00 | 89 | 1010.0 |
| 20260903042203 | 65 | 0 | 0.0 | 0.0 | 0.00 | 0.00 | 0.00 | 89 | 1010.1 |
| 20260903042103 | 65 | 0 | 0.0 | 0.0 | 0.00 | 0.00 | 0.00 | 89 | 1010.1 |
| 20260903042003 | 65 | 0 | 0.0 | 0.0 | 0.00 | 0.00 | 0.00 | 89 | 1010.0 |
| 20260903041903 | 65 | 0 | 0.0 | 0.0 | 0.00 | 0.00 | 0.00 | 89 | 1009.9 |
| 20260903041703 | 65 | 0 | 0.0 | 0.0 | 0.00 | 0.00 | 0.00 | 89 | 1010.2 |
| 20260903041603 | 65 | 0 | 0.0 | 0.0 | 0.00 | 0.00 | 0.00 | 89 | 1010.0 |
| 20260903041503 | 65 | 0 | 0.0 | 0.0 | 0.00 | 0.00 | 0.00 | 89 | 1009.9 |
| 20260903041303 | 65 | 0 | 0.0 | 0.0 | 0.00 | 0.00 | 0.00 | 89 | 1010.0 |
| 20260903041203 | 65 | 0 | 0.0 | 0.0 | 0.00 | 0.00 | 0.00 | 89 | 1009.7 |
| 20260903041118 | 65 | 0 | 0.0 | 0.0 | 0.00 | 0.00 | 0.00 | 89 | 1009.9 |
| 20260903041103 | 65 | 0 | 0.0 | 0.0 | 0.00 | 0.00 | 0.00 | 89 | 1009.8 |
| 20260903041003 | 65 | 0 | 0.0 | 0.0 | 0.00 | 0.00 | 0.00 | 89 | 1009.8 |
| 20260903040917 | 65 | 0 | 0.0 | 0.0 | 0.00 | 0.00 | 0.00 | 89 | 1009.8 |
| 20260903040603 | 65 | 0 | 0.0 | 0.0 | 0.00 | 0.00 | 0.00 | 89 | 1009.9 |
| 20260903040503 | 65 | 0 | 0.0 | 0.0 | 0.00 | 0.00 | 0.00 | 89 | 1010.0 |
| 20260903040403 | 65 | 90 | 0.0 | 2.0 | 0.00 | 0.00 | 0.00 | 89 | 1009.9 |
| 20260903040303 | 65 | 90 | 0.0 | 2.0 | 0.00 | 0.00 | 0.00 | 89 | 1010.1 |
| 20260903040203 | 65 | 90 | 0.0 | 2.0 | 0.00 | 0.00 | 0.00 | 89 | 1010.0 |
| 20260903040103 | 65 | 90 | 0.0 | 2.0 | 0.00 | 0.00 | 0.00 | 89 | 1009.9 |
| 20260903040003 | 65 | 90 | 0.0 | 2.0 | 0.00 | 0.00 | 0.00 | 89 | 1009.9 |
| 20260903035903 | 65 | 0 | 0.0 | 0.0 | 0.00 | 0.00 | 0.00 | 89 | 1010.1 |
| 20260903035803 | 65 | 0 | 0.0 | 0.0 | 0.00 | 0.00 | 0.00 | 90 | 1010.1 |
| 20260903035703 | 65 | 0 | 0.0 | 0.0 | 0.00 | 0.00 | 0.00 | 90 | 1010.2 |
| 20260903035603 | 65 | 0 | 0.0 | 0.0 | 0.00 | 0.00 | 0.00 | 90 | 1010.2 |
| 20260903035306 | 65 | 0 | 0.0 | 0.0 | 0.00 | 0.00 | 0.00 | 90 | 1010.3 |
| 20260903035203 | 65 | 0 | 0.0 | 0.0 | 0.00 | 0.00 | 0.00 | 90 | 1010.0 |
| 20260903035003 | 65 | 0 | 0.0 | 0.0 | 0.00 | 0.00 | 0.00 | 90 | 1010.1 |
| 20260903034903 | 64 | 0 | 0.0 | 0.0 | 0.00 | 0.00 | 0.00 | 90 | 1010.3 |
| 20260903034803 | 64 | 0 | 0.0 | 0.0 | 0.00 | 0.00 | 0.00 | 90 | 1010.1 |
| 20260903034603 | 64 | 90 | 0.0 | 2.0 | 0.00 | 0.00 | 0.00 | 90 | 1009.9 |
| 20260903034503 | 64 | 90 | 0.0 | 2.0 | 0.00 | 0.00 | 0.00 | 90 | 1010.1 |
| 20260903034303 | 64 | 90 | 0.0 | 2.0 | 0.00 | 0.00 | 0.00 | 90 | 1010.0 |
| 20260903034203 | 64 | 90 | 1.0 | 2.0 | 0.00 | 0.00 | 0.00 | 90 | 1010.1 |
| 20260903034103 | 64 | 90 | 1.0 | 2.0 | 0.00 | 0.00 | 0.00 | 90 | 1010.2 |
| 20260903034003 | 64 | 0 | 0.0 | 0.0 | 0.00 | 0.00 | 0.00 | 90 | 1010.1 |
| 20260903033803 | 64 | 0 | 0.0 | 0.0 | 0.00 | 0.00 | 0.00 | 90 | 1010.2 |
| 20260903033703 | 64 | 0 | 0.0 | 0.0 | 0.00 | 0.00 | 0.00 | 90 | 1010.2 |
| 20260903033603 | 64 | 0 | 0.0 | 0.0 | 0.00 | 0.00 | 0.00 | 90 | 1010.2 |
| 20260903033503 | 64 | 0 | 0.0 | 0.0 | 0.00 | 0.00 | 0.00 | 90 | 1010.4 |
| 20260903033403 | 64 | 0 | 0.0 | 0.0 | 0.00 | 0.00 | 0.00 | 90 | 1010.2 |
| 20260903033309 | 64 | 0 | 0.0 | 0.0 | 0.00 | 0.00 | 0.00 | 90 | 1010.3 |
| 20260903033103 | 64 | 0 | 0.0 | 0.0 | 0.00 | 0.00 | 0.00 | 90 | 1010.3 |
| 20260903033003 | 64 | 0 | 0.0 | 0.0 | 0.00 | 0.00 | 0.00 | 90 | 1009.9 |
| 20260903032903 | 64 | 0 | 0.0 | 0.0 | 0.00 | 0.00 | 0.00 | 90 | 1010.1 |
| 20260903032803 | 64 | 0 | 0.0 | 0.0 | 0.00 | 0.00 | 0.00 | 90 | 1010.3 |
| 20260903032703 | 64 | 0 | 0.0 | 0.0 | 0.00 | 0.00 | 0.00 | 90 | 1010.4 |
| 20260903032603 | 64 | 0 | 0.0 | 0.0 | 0.00 | 0.00 | 0.00 | 90 | 1010.3 |
| 20260903032503 | 64 | 0 | 0.0 | 0.0 | 0.00 | 0.00 | 0.00 | 90 | 1010.1 |
| 20260903032305 | 64 | 0 | 0.0 | 0.0 | 0.00 | 0.00 | 0.00 | 90 | 1010.2 |
| 20260903032203 | 64 | 0 | 0.0 | 0.0 | 0.00 | 0.00 | 0.00 | 90 | 1010.4 |
| 20260903032103 | 64 | 90 | 0.0 | 2.0 | 0.00 | 0.00 | 0.00 | 90 | 1010.1 |
| 20260903032003 | 64 | 90 | 0.0 | 2.0 | 0.00 | 0.00 | 0.00 | 90 | 1010.4 |
| 20260903031703 | 64 | 90 | 0.0 | 2.0 | 0.00 | 0.00 | 0.00 | 90 | 1010.1 |
| 20260903031603 | 64 | 90 | 0.0 | 2.0 | 0.00 | 0.00 | 0.00 | 90 | 1010.3 |
| 20260903031403 | 64 | 0 | 0.0 | 0.0 | 0.00 | 0.00 | 0.00 | 90 | 1010.2 |
| 20260903031303 | 64 | 0 | 0.0 | 0.0 | 0.00 | 0.00 | 0.00 | 90 | 1010.1 |
| 20260903031203 | 64 | 0 | 0.0 | 0.0 | 0.00 | 0.00 | 0.00 | 90 | 1010.3 |
| 20260903031103 | 64 | 90 | 0.0 | 2.0 | 0.00 | 0.00 | 0.00 | 90 | 1010.3 |
| 20260903031003 | 64 | 90 | 0.0 | 2.0 | 0.00 | 0.00 | 0.00 | 90 | 1010.3 |
| 20260903030903 | 64 | 90 | 0.0 | 2.0 | 0.00 | 0.00 | 0.00 | 90 | 1010.1 |
| 20260903030803 | 64 | 90 | 0.0 | 2.0 | 0.00 | 0.00 | 0.00 | 90 | 1010.0 |
| 20260903030703 | 64 | 90 | 1.0 | 2.0 | 0.00 | 0.00 | 0.00 | 90 | 1010.0 |
| 20260903030603 | 64 | 0 | 0.0 | 0.0 | 0.00 | 0.00 | 0.00 | 90 | 1010.0 |
| 20260903030503 | 64 | 90 | 0.0 | 2.0 | 0.00 | 0.00 | 0.00 | 90 | 1010.1 |
| 20260903030403 | 64 | 90 | 0.0 | 2.0 | 0.00 | 0.00 | 0.00 | 90 | 1010.0 |
| 20260903030103 | 64 | 90 | 0.0 | 2.0 | 0.00 | 0.00 | 0.00 | 90 | 1010.0 |
| 20260903030004 | 64 | 90 | 0.0 | 2.0 | 0.00 | 0.00 | 0.00 | 90 | 1009.9 |
| 20260903025903 | 64 | 90 | 0.0 | 2.0 | 0.00 | 0.00 | 0.00 | 90 | 1009.9 |
| 20260903025803 | 64 | 90 | 0.0 | 2.0 | 0.00 | 0.00 | 0.00 | 90 | 1010.0 |
| 20260903025603 | 64 | 90 | 0.0 | 2.0 | 0.00 | 0.00 | 0.00 | 90 | 1010.2 |
| 20260903025503 | 64 | 90 | 0.0 | 2.0 | 0.00 | 0.00 | 0.00 | 90 | 1009.9 |
| 20260903025403 | 64 | 90 | 0.0 | 2.0 | 0.00 | 0.00 | 0.00 | 90 | 1009.9 |
| 20260903025305 | 64 | 90 | 0.0 | 2.0 | 0.00 | 0.00 | 0.00 | 90 | 1009.9 |
| 20260903025203 | 64 | 90 | 0.0 | 2.0 | 0.00 | 0.00 | 0.00 | 90 | 1010.0 |
| 20260903025103 | 64 | 88 | 0.0 | 2.0 | 0.00 | 0.00 | 0.00 | 90 | 1010.1 |
| 20260903025003 | 64 | 84 | 1.0 | 2.0 | 0.00 | 0.00 | 0.00 | 90 | 1009.9 |
| 20260903024917 | 64 | 81 | 1.0 | 2.0 | 0.00 | 0.00 | 0.00 | 89 | 1009.9 |
| 20260903024903 | 64 | 79 | 1.0 | 2.0 | 0.00 | 0.00 | 0.00 | 89 | 1009.9 |
| 20260903024803 | 64 | 79 | 0.0 | 2.0 | 0.00 | 0.00 | 0.00 | 89 | 1009.9 |
| 20260903024718 | 64 | 77 | 1.0 | 2.0 | 0.00 | 0.00 | 0.00 | 89 | 1010.0 |
| 20260903024603 | 64 | 77 | 1.0 | 2.0 | 0.00 | 0.00 | 0.00 | 89 | 1010.0 |
| 20260903024517 | 64 | 83 | 0.0 | 2.0 | 0.00 | 0.00 | 0.00 | 89 | 1010.0 |
| 20260903024403 | 64 | 88 | 1.0 | 2.0 | 0.00 | 0.00 | 0.00 | 89 | 1010.0 |
| 20260903024203 | 64 | 80 | 0.0 | 2.0 | 0.00 | 0.00 | 0.00 | 89 | 1009.9 |
| 20260903024103 | 64 | 79 | 0.0 | 2.0 | 0.00 | 0.00 | 0.00 | 89 | 1010.1 |
| 20260903024003 | 64 | 79 | 2.0 | 2.0 | 0.00 | 0.00 | 0.00 | 89 | 1010.0 |
| 20260903023903 | 64 | 78 | 1.0 | 2.0 | 0.00 | 0.00 | 0.00 | 89 | 1010.0 |
| 20260903023803 | 64 | 84 | 1.0 | 4.0 | 0.00 | 0.00 | 0.00 | 89 | 1010.1 |
| 20260903023703 | 64 | 89 | 2.0 | 4.0 | 0.00 | 0.00 | 0.00 | 89 | 1009.8 |
| 20260903023603 | 64 | 85 | 0.0 | 4.0 | 0.00 | 0.00 | 0.00 | 89 | 1009.8 |
| 20260903023503 | 64 | 80 | 0.0 | 4.0 | 0.00 | 0.00 | 0.00 | 89 | 1009.7 |
| 20260903023403 | 64 | 76 | 1.0 | 4.0 | 0.00 | 0.00 | 0.00 | 89 | 1009.8 |
| 20260903023318 | 64 | 69 | 2.0 | 4.0 | 0.00 | 0.00 | 0.00 | 89 | 1009.8 |
| 20260903023303 | 64 | 65 | 2.0 | 4.0 | 0.00 | 0.00 | 0.00 | 89 | 1009.8 |
| 20260903023203 | 64 | 50 | 2.0 | 4.0 | 0.00 | 0.00 | 0.00 | 89 | 1009.7 |
| 20260903023003 | 64 | 38 | 2.0 | 4.0 | 0.00 | 0.00 | 0.00 | 88 | 1009.8 |
| 20260903022903 | 64 | 40 | 0.0 | 4.0 | 0.00 | 0.00 | 0.00 | 88 | 1009.8 |
| 20260903022803 | 64 | 56 | 0.0 | 4.0 | 0.00 | 0.00 | 0.00 | 88 | 1009.7 |
| 20260903022703 | 64 | 67 | 0.0 | 4.0 | 0.00 | 0.00 | 0.00 | 88 | 1009.7 |
| 20260903022603 | 64 | 71 | 2.0 | 4.0 | 0.00 | 0.00 | 0.00 | 88 | 1009.9 |
| 20260903022517 | 64 | 80 | 2.0 | 4.0 | 0.00 | 0.00 | 0.00 | 88 | 1009.7 |
| 20260903022504 | 64 | 82 | 2.0 | 4.0 | 0.00 | 0.00 | 0.00 | 88 | 1009.7 |
| 20260903022403 | 65 | 85 | 0.0 | 4.0 | 0.00 | 0.00 | 0.00 | 88 | 1009.8 |
| 20260903022203 | 65 | 87 | 1.0 | 2.0 | 0.00 | 0.00 | 0.00 | 88 | 1009.9 |
| 20260903022103 | 65 | 80 | 2.0 | 4.0 | 0.00 | 0.00 | 0.00 | 88 | 1009.8 |
| 20260903022003 | 65 | 73 | 0.0 | 4.0 | 0.00 | 0.00 | 0.00 | 88 | 1009.8 |
| 20260903021917 | 65 | 68 | 0.0 | 4.0 | 0.00 | 0.00 | 0.00 | 88 | 1010.0 |
| 20260903021903 | 65 | 67 | 0.0 | 4.0 | 0.00 | 0.00 | 0.00 | 88 | 1009.8 |
| 20260903021803 | 65 | 70 | 0.0 | 4.0 | 0.00 | 0.00 | 0.00 | 88 | 1009.6 |
| 20260903021603 | 65 | 78 | 1.0 | 4.0 | 0.00 | 0.00 | 0.00 | 88 | 1009.9 |
| 20260903021503 | 65 | 82 | 0.0 | 4.0 | 0.00 | 0.00 | 0.00 | 88 | 1009.9 |
| 20260903021403 | 65 | 68 | 0.0 | 4.0 | 0.00 | 0.00 | 0.00 | 87 | 1010.0 |
| 20260903021303 | 65 | 63 | 0.0 | 4.0 | 0.00 | 0.00 | 0.00 | 87 | 1010.1 |
| 20260903021203 | 65 | 61 | 2.0 | 4.0 | 0.00 | 0.00 | 0.00 | 87 | 1009.8 |
| 20260903021103 | 65 | 63 | 2.0 | 4.0 | 0.00 | 0.00 | 0.00 | 87 | 1009.9 |
| 20260903021003 | 65 | 57 | 1.0 | 2.0 | 0.00 | 0.00 | 0.00 | 87 | 1009.7 |
| 20260903020903 | 65 | 59 | 1.0 | 4.0 | 0.00 | 0.00 | 0.00 | 87 | 1009.9 |
| 20260903020803 | 65 | 70 | 2.0 | 4.0 | 0.00 | 0.00 | 0.00 | 87 | 1009.7 |
| 20260903020703 | 65 | 65 | 1.0 | 4.0 | 0.00 | 0.00 | 0.00 | 87 | 1009.7 |
| 20260903020603 | 65 | 59 | 2.0 | 4.0 | 0.00 | 0.00 | 0.00 | 87 | 1009.8 |
| 20260903020503 | 65 | 65 | 0.0 | 4.0 | 0.00 | 0.00 | 0.00 | 87 | 1009.9 |
| 20260903020418 | 65 | 69 | 2.0 | 4.0 | 0.00 | 0.00 | 0.00 | 87 | 1009.9 |
| 20260903020403 | 65 | 73 | 2.0 | 4.0 | 0.00 | 0.00 | 0.00 | 87 | 1009.9 |
| 20260903020303 | 65 | 75 | 2.0 | 4.0 | 0.00 | 0.00 | 0.00 | 87 | 1010.0 |
| 20260903020003 | 65 | 77 | 1.0 | 4.0 | 0.00 | 0.00 | 0.00 | 87 | 1010.2 |
| 20260903015903 | 65 | 75 | 2.0 | 4.0 | 0.00 | 0.00 | 0.00 | 87 | 1010.1 |
| 20260903015720 | 65 | 66 | 1.0 | 4.0 | 0.00 | 0.00 | 0.00 | 87 | 1010.1 |
| 20260903015703 | 65 | 64 | 1.0 | 4.0 | 0.00 | 0.00 | 0.00 | 87 | 1010.1 |
| 20260903015603 | 65 | 68 | 2.0 | 4.0 | 0.00 | 0.00 | 0.00 | 87 | 1010.1 |
| 20260903015403 | 65 | 63 | 1.0 | 4.0 | 0.00 | 0.00 | 0.00 | 87 | 1010.1 |
| 20260903015305 | 65 | 62 | 1.0 | 4.0 | 0.00 | 0.00 | 0.00 | 87 | 1010.1 |
| 20260903015203 | 65 | 70 | 1.0 | 4.0 | 0.00 | 0.00 | 0.00 | 87 | 1010.1 |
| 20260903015103 | 65 | 71 | 1.0 | 4.0 | 0.00 | 0.00 | 0.00 | 87 | 1009.8 |
| 20260903015003 | 65 | 67 | 2.0 | 4.0 | 0.00 | 0.00 | 0.00 | 87 | 1010.2 |
| 20260903014903 | 65 | 64 | 1.0 | 4.0 | 0.00 | 0.00 | 0.00 | 87 | 1009.9 |
| 20260903014817 | 65 | 65 | 1.0 | 4.0 | 0.00 | 0.00 | 0.00 | 87 | 1010.1 |
| 20260903014803 | 65 | 66 | 1.0 | 4.0 | 0.00 | 0.00 | 0.00 | 87 | 1010.1 |
| 20260903014703 | 65 | 69 | 1.0 | 4.0 | 0.00 | 0.00 | 0.00 | 87 | 1010.0 |
| 20260903014618 | 65 | 74 | 2.0 | 4.0 | 0.00 | 0.00 | 0.00 | 87 | 1010.1 |
| 20260903014503 | 65 | 83 | 2.0 | 4.0 | 0.00 | 0.00 | 0.00 | 87 | 1010.0 |
| 20260903014310 | 65 | 91 | 1.0 | 4.0 | 0.00 | 0.00 | 0.00 | 87 | 1010.2 |
| 20260903014203 | 65 | 82 | 2.0 | 4.0 | 0.00 | 0.00 | 0.00 | 87 | 1010.0 |
| 20260903014103 | 65 | 79 | 2.0 | 4.0 | 0.00 | 0.00 | 0.00 | 87 | 1010.0 |
| 20260903014003 | 65 | 78 | 1.0 | 4.0 | 0.00 | 0.00 | 0.00 | 86 | 1009.8 |
| 20260903013903 | 65 | 76 | 2.0 | 4.0 | 0.00 | 0.00 | 0.00 | 86 | 1009.9 |
| 20260903013803 | 65 | 77 | 2.0 | 4.0 | 0.00 | 0.00 | 0.00 | 86 | 1009.9 |
| 20260903013703 | 65 | 84 | 2.0 | 4.0 | 0.00 | 0.00 | 0.00 | 86 | 1010.1 |
| 20260903013603 | 65 | 84 | 0.0 | 4.0 | 0.00 | 0.00 | 0.00 | 86 | 1010.1 |
| 20260903013503 | 66 | 82 | 0.0 | 4.0 | 0.00 | 0.00 | 0.00 | 86 | 1010.1 |
| 20260903013403 | 66 | 73 | 1.0 | 4.0 | 0.00 | 0.00 | 0.00 | 86 | 1010.0 |
| 20260903013303 | 66 | 71 | 1.0 | 4.0 | 0.00 | 0.00 | 0.00 | 86 | 1010.3 |
| 20260903013203 | 66 | 75 | 0.0 | 4.0 | 0.00 | 0.00 | 0.00 | 86 | 1010.0 |
| 20260903013103 | 66 | 81 | 2.0 | 4.0 | 0.00 | 0.00 | 0.00 | 86 | 1009.9 |
| 20260903013003 | 66 | 90 | 2.0 | 4.0 | 0.00 | 0.00 | 0.00 | 85 | 1010.0 |
| 20260903012903 | 66 | 96 | 2.0 | 4.0 | 0.00 | 0.00 | 0.00 | 85 | 1009.9 |
| 20260903012817 | 66 | 94 | 1.0 | 4.0 | 0.00 | 0.00 | 0.00 | 85 | 1009.9 |
| 20260903012803 | 66 | 91 | 1.0 | 4.0 | 0.00 | 0.00 | 0.00 | 85 | 1009.9 |
| 20260903012703 | 66 | 84 | 1.0 | 4.0 | 0.00 | 0.00 | 0.00 | 85 | 1009.9 |
| 20260903012517 | 66 | 71 | 2.0 | 4.0 | 0.00 | 0.00 | 0.00 | 85 | 1009.7 |
| 20260903012503 | 66 | 70 | 2.0 | 4.0 | 0.00 | 0.00 | 0.00 | 85 | 1009.7 |
| 20260903012403 | 66 | 67 | 1.0 | 4.0 | 0.00 | 0.00 | 0.00 | 85 | 1009.6 |
| 20260903012103 | 66 | 77 | 2.0 | 4.0 | 0.00 | 0.00 | 0.00 | 85 | 1009.8 |
| 20260903012003 | 66 | 76 | 1.0 | 4.0 | 0.00 | 0.00 | 0.00 | 85 | 1009.6 |
| 20260903011903 | 66 | 72 | 2.0 | 4.0 | 0.00 | 0.00 | 0.00 | 85 | 1009.5 |
| 20260903011817 | 66 | 71 | 2.0 | 4.0 | 0.00 | 0.00 | 0.00 | 85 | 1009.6 |
| 20260903011803 | 66 | 73 | 2.0 | 4.0 | 0.00 | 0.00 | 0.00 | 85 | 1009.6 |
| 20260903011703 | 66 | 71 | 2.0 | 4.0 | 0.00 | 0.00 | 0.00 | 85 | 1009.7 |
| 20260903011503 | 66 | 73 | 1.0 | 4.0 | 0.00 | 0.00 | 0.00 | 85 | 1009.7 |
| 20260903011417 | 66 | 83 | 2.0 | 4.0 | 0.00 | 0.00 | 0.00 | 85 | 1009.8 |
| 20260903011403 | 66 | 87 | 2.0 | 4.0 | 0.00 | 0.00 | 0.00 | 85 | 1009.8 |
| 20260903011303 | 66 | 92 | 2.0 | 4.0 | 0.00 | 0.00 | 0.00 | 85 | 1009.7 |
| 20260903011103 | 66 | 99 | 2.0 | 4.0 | 0.00 | 0.00 | 0.00 | 84 | 1009.8 |
| 20260903011003 | 66 | 90 | 2.0 | 4.0 | 0.00 | 0.00 | 0.00 | 84 | 1009.6 |
| 20260903010903 | 66 | 85 | 1.0 | 4.0 | 0.00 | 0.00 | 0.00 | 84 | 1009.7 |
| 20260903010803 | 66 | 84 | 1.0 | 4.0 | 0.00 | 0.00 | 0.00 | 84 | 1009.9 |
| 20260903010703 | 66 | 78 | 2.0 | 4.0 | 0.00 | 0.00 | 0.00 | 84 | 1009.7 |
| 20260903010610 | 66 | 81 | 2.0 | 4.0 | 0.00 | 0.00 | 0.00 | 84 | 1009.6 |
| 20260903010503 | 66 | 89 | 1.0 | 4.0 | 0.00 | 0.00 | 0.00 | 84 | 1009.8 |
| 20260903010403 | 66 | 89 | 1.0 | 4.0 | 0.00 | 0.00 | 0.00 | 84 | 1009.8 |
| 20260903010303 | 66 | 94 | 1.0 | 4.0 | 0.00 | 0.00 | 0.00 | 84 | 1009.6 |
| 20260903010203 | 66 | 95 | 2.0 | 4.0 | 0.00 | 0.00 | 0.00 | 84 | 1009.6 |
| 20260903010117 | 66 | 90 | 2.0 | 4.0 | 0.00 | 0.00 | 0.00 | 83 | 1009.6 |
| 20260903010003 | 66 | 82 | 2.0 | 4.0 | 0.00 | 0.00 | 0.00 | 83 | 1009.7 |
| 20260903005803 | 66 | 67 | 2.0 | 4.0 | 0.00 | 0.00 | 0.00 | 83 | 1009.4 |
| 20260903005703 | 66 | 68 | 2.0 | 4.0 | 0.00 | 0.00 | 0.00 | 83 | 1009.6 |
| 20260903005604 | 66 | 68 | 2.0 | 4.0 | 0.00 | 0.00 | 0.00 | 83 | 1009.8 |
| 20260903005503 | 66 | 68 | 2.0 | 4.0 | 0.00 | 0.00 | 0.00 | 82 | 1009.7 |
| 20260903005403 | 66 | 66 | 1.0 | 4.0 | 0.00 | 0.00 | 0.00 | 82 | 1009.7 |
| 20260903005306 | 66 | 66 | 2.0 | 4.0 | 0.00 | 0.00 | 0.00 | 82 | 1009.6 |
| 20260903005218 | 66 | 63 | 1.0 | 4.0 | 0.00 | 0.00 | 0.00 | 82 | 1009.6 |
| 20260903005203 | 66 | 62 | 1.0 | 4.0 | 0.00 | 0.00 | 0.00 | 82 | 1009.6 |
| 20260903005103 | 67 | 59 | 1.0 | 4.0 | 0.00 | 0.00 | 0.00 | 82 | 1009.6 |
| 20260903004803 | 67 | 67 | 0.0 | 4.0 | 0.00 | 0.00 | 0.00 | 82 | 1009.6 |
| 20260903004703 | 67 | 65 | 0.0 | 4.0 | 0.00 | 0.00 | 0.00 | 82 | 1009.6 |
| 20260903004603 | 67 | 63 | 0.0 | 4.0 | 0.00 | 0.00 | 0.00 | 82 | 1009.4 |
| 20260903004503 | 67 | 64 | 0.0 | 4.0 | 0.00 | 0.00 | 0.00 | 82 | 1009.6 |
| 20260903004203 | 67 | 65 | 1.0 | 4.0 | 0.00 | 0.00 | 0.00 | 82 | 1009.6 |
| 20260903004103 | 67 | 67 | 1.0 | 4.0 | 0.00 | 0.00 | 0.00 | 81 | 1009.6 |
| 20260903004003 | 67 | 67 | 1.0 | 4.0 | 0.00 | 0.00 | 0.00 | 81 | 1009.7 |
| 20260903003803 | 67 | 67 | 1.0 | 2.0 | 0.00 | 0.00 | 0.00 | 81 | 1009.6 |
| 20260903003704 | 67 | 61 | 1.0 | 4.0 | 0.00 | 0.00 | 0.00 | 81 | 1009.6 |
| 20260903003603 | 67 | 56 | 1.0 | 4.0 | 0.00 | 0.00 | 0.00 | 81 | 1009.6 |
| 20260903003503 | 67 | 56 | 0.0 | 4.0 | 0.00 | 0.00 | 0.00 | 81 | 1009.5 |
| 20260903003403 | 67 | 56 | 1.0 | 4.0 | 0.00 | 0.00 | 0.00 | 81 | 1009.5 |
| 20260903003303 | 67 | 56 | 1.0 | 4.0 | 0.00 | 0.00 | 0.00 | 81 | 1009.5 |
| 20260903003203 | 67 | 59 | 2.0 | 4.0 | 0.00 | 0.00 | 0.00 | 81 | 1009.4 |
| 20260903003103 | 67 | 67 | 1.0 | 2.0 | 0.00 | 0.00 | 0.00 | 81 | 1009.6 |
| 20260903003003 | 67 | 67 | 1.0 | 2.0 | 0.00 | 0.00 | 0.00 | 81 | 1009.3 |
| 20260903002903 | 67 | 67 | 0.0 | 2.0 | 0.00 | 0.00 | 0.00 | 81 | 1009.5 |
| 20260903002803 | 67 | 67 | 1.0 | 2.0 | 0.00 | 0.00 | 0.00 | 81 | 1009.2 |
| 20260903002703 | 67 | 67 | 1.0 | 2.0 | 0.00 | 0.00 | 0.00 | 80 | 1009.2 |
| 20260903002603 | 67 | 67 | 1.0 | 2.0 | 0.00 | 0.00 | 0.00 | 80 | 1009.6 |
| 20260903002505 | 67 | 67 | 1.0 | 2.0 | 0.00 | 0.00 | 0.00 | 80 | 1009.2 |
| 20260903002403 | 67 | 67 | 1.0 | 2.0 | 0.00 | 0.00 | 0.00 | 80 | 1009.4 |
| 20260903002306 | 67 | 67 | 1.0 | 2.0 | 0.00 | 0.00 | 0.00 | 80 | 1009.5 |
| 20260903002204 | 67 | 67 | 1.0 | 2.0 | 0.00 | 0.00 | 0.00 | 80 | 1009.6 |
| 20260903002103 | 67 | 67 | 2.0 | 2.0 | 0.00 | 0.00 | 0.00 | 80 | 1009.5 |
| 20260903002003 | 67 | 67 | 1.0 | 2.0 | 0.00 | 0.00 | 0.00 | 80 | 1009.5 |
| 20260903001903 | 67 | 67 | 1.0 | 2.0 | 0.00 | 0.00 | 0.00 | 80 | 1009.6 |
| 20260903001704 | 67 | 67 | 1.0 | 2.0 | 0.00 | 0.00 | 0.00 | 80 | 1009.6 |
| 20260903001603 | 67 | 67 | 2.0 | 2.0 | 0.00 | 0.00 | 0.00 | 80 | 1009.5 |
| 20260903001503 | 67 | 67 | 2.0 | 4.0 | 0.00 | 0.00 | 0.00 | 80 | 1009.3 |
| 20260903001403 | 67 | 67 | 1.0 | 4.0 | 0.00 | 0.00 | 0.00 | 80 | 1009.4 |
| 20260903001303 | 67 | 67 | 0.0 | 4.0 | 0.00 | 0.00 | 0.00 | 80 | 1009.3 |
| 20260903001203 | 67 | 67 | 0.0 | 4.0 | 0.00 | 0.00 | 0.00 | 80 | 1009.4 |
| 20260903001103 | 67 | 67 | 1.0 | 4.0 | 0.00 | 0.00 | 0.00 | 80 | 1009.3 |
| 20260903001003 | 67 | 67 | 2.0 | 4.0 | 0.00 | 0.00 | 0.00 | 80 | 1009.1 |
| 20260903000903 | 67 | 67 | 2.0 | 4.0 | 0.00 | 0.00 | 0.00 | 80 | 1009.3 |
| 20260903000803 | 67 | 67 | 2.0 | 4.0 | 0.00 | 0.00 | 0.00 | 80 | 1009.3 |
| 20260903000703 | 67 | 67 | 2.0 | 4.0 | 0.00 | 0.00 | 0.00 | 80 | 1009.3 |
| 20260903000503 | 68 | 67 | 1.0 | 2.0 | 0.00 | 0.00 | 0.00 | 79 | 1009.3 |
| 20260903000405 | 68 | 67 | 1.0 | 2.0 | 0.00 | 0.00 | 0.00 | 79 | 1009.5 |
| 20260903000303 | 68 | 67 | 1.0 | 2.0 | 0.00 | 0.00 | 0.00 | 79 | 1009.4 |
| 20260903000204 | 68 | 67 | 1.0 | 2.0 | 0.00 | 0.00 | 0.00 | 79 | 1009.2 |
| 20260903000103 | 68 | 67 | 1.0 | 2.0 | 0.00 | 0.00 | 0.00 | 79 | 1009.3 |
| 20260903000003 | 68 | 67 | 2.0 | 2.0 | 0.00 | 0.00 | 0.00 | 79 | 1009.3 |
| 20260902235703 | 68 | 59 | 0.0 | 2.0 | 0.00 | 0.00 | 0.00 | 79 | 1009.3 |
| 20260902235618 | 68 | 57 | 0.0 | 2.0 | 0.00 | 0.00 | 0.00 | 79 | 1009.2 |
| 20260902235603 | 68 | 56 | 0.0 | 2.0 | 0.00 | 0.00 | 0.00 | 79 | 1009.2 |
| 20260902235518 | 68 | 53 | 1.0 | 2.0 | 0.00 | 0.00 | 0.00 | 79 | 1009.1 |
| 20260902235503 | 68 | 52 | 2.0 | 2.0 | 0.00 | 0.00 | 0.00 | 79 | 1009.2 |
| 20260902235203 | 68 | 45 | 2.0 | 2.0 | 0.00 | 0.00 | 0.00 | 79 | 1009.1 |
| 20260902235104 | 68 | 45 | 2.0 | 2.0 | 0.00 | 0.00 | 0.00 | 79 | 1009.2 |
| 20260902235003 | 68 | 45 | 1.0 | 2.0 | 0.00 | 0.00 | 0.00 | 79 | 1009.0 |
| 20260902234903 | 68 | 45 | 1.0 | 2.0 | 0.00 | 0.00 | 0.00 | 79 | 1009.0 |
| 20260902234803 | 68 | 38 | 1.0 | 2.0 | 0.00 | 0.00 | 0.00 | 79 | 1009.1 |
| 20260902234717 | 68 | 33 | 1.0 | 4.0 | 0.00 | 0.00 | 0.00 | 79 | 1008.9 |
| 20260902234703 | 68 | 31 | 2.0 | 4.0 | 0.00 | 0.00 | 0.00 | 79 | 1008.9 |
| 20260902234603 | 68 | 24 | 1.0 | 4.0 | 0.00 | 0.00 | 0.00 | 79 | 1008.9 |
| 20260902234403 | 68 | 6 | 1.0 | 4.0 | 0.00 | 0.00 | 0.00 | 78 | 1008.7 |
| 20260902234317 | 68 | 4 | 2.0 | 4.0 | 0.00 | 0.00 | 0.00 | 78 | 1008.8 |
| 20260902234303 | 68 | 4 | 2.0 | 4.0 | 0.00 | 0.00 | 0.00 | 78 | 1008.9 |
| 20260902234203 | 68 | 360 | 2.0 | 4.0 | 0.00 | 0.00 | 0.00 | 78 | 1008.8 |
| 20260902234003 | 68 | 7 | 2.0 | 4.0 | 0.00 | 0.00 | 0.00 | 78 | 1008.8 |
| 20260902233903 | 68 | 12 | 3.0 | 4.0 | 0.00 | 0.00 | 0.00 | 78 | 1008.9 |
| 20260902233803 | 68 | 15 | 2.0 | 4.0 | 0.00 | 0.00 | 0.00 | 78 | 1008.9 |
| 20260902233703 | 68 | 17 | 2.0 | 4.0 | 0.00 | 0.00 | 0.00 | 78 | 1008.9 |
| 20260902233603 | 69 | 21 | 1.0 | 4.0 | 0.00 | 0.00 | 0.00 | 78 | 1008.8 |
| 20260902233503 | 69 | 28 | 2.0 | 4.0 | 0.00 | 0.00 | 0.00 | 77 | 1008.9 |
| 20260902233403 | 69 | 41 | 2.0 | 4.0 | 0.00 | 0.00 | 0.00 | 77 | 1008.8 |
| 20260902233303 | 69 | 45 | 2.0 | 4.0 | 0.00 | 0.00 | 0.00 | 77 | 1008.9 |
| 20260902233203 | 69 | 52 | 2.0 | 4.0 | 0.00 | 0.00 | 0.00 | 77 | 1008.9 |
| 20260902233103 | 69 | 51 | 1.0 | 4.0 | 0.00 | 0.00 | 0.00 | 76 | 1008.7 |
| 20260902233003 | 69 | 41 | 2.0 | 4.0 | 0.00 | 0.00 | 0.00 | 76 | 1008.9 |
| 20260902232918 | 69 | 35 | 2.0 | 4.0 | 0.00 | 0.00 | 0.00 | 76 | 1008.8 |
| 20260902232903 | 69 | 33 | 2.0 | 4.0 | 0.00 | 0.00 | 0.00 | 76 | 1008.8 |
| 20260902232803 | 69 | 34 | 2.0 | 4.0 | 0.00 | 0.00 | 0.00 | 76 | 1008.7 |
| 20260902232603 | 69 | 34 | 2.0 | 4.0 | 0.00 | 0.00 | 0.00 | 75 | 1008.8 |
| 20260902232504 | 70 | 29 | 2.0 | 4.0 | 0.00 | 0.00 | 0.00 | 75 | 1008.8 |
| 20260902232403 | 69 | 19 | 2.0 | 4.0 | 0.00 | 0.00 | 0.00 | 75 | 1008.7 |
| 20260902232306 | 70 | 9 | 1.0 | 4.0 | 0.00 | 0.00 | 0.00 | 75 | 1008.7 |
| 20260902232203 | 70 | 3 | 2.0 | 4.0 | 0.00 | 0.00 | 0.00 | 75 | 1008.8 |
| 20260902232104 | 70 | 357 | 1.0 | 4.0 | 0.00 | 0.00 | 0.00 | 75 | 1008.6 |
| 20260902232003 | 70 | 360 | 2.0 | 4.0 | 0.00 | 0.00 | 0.00 | 75 | 1008.8 |
| 20260902231903 | 70 | 8 | 4.0 | 6.0 | 0.00 | 0.00 | 0.00 | 74 | 1008.7 |
| 20260902231803 | 70 | 9 | 4.0 | 6.0 | 0.00 | 0.00 | 0.00 | 74 | 1008.9 |
| 20260902231703 | 70 | 10 | 3.0 | 6.0 | 0.00 | 0.00 | 0.00 | 74 | 1008.7 |
| 20260902231617 | 70 | 11 | 3.0 | 6.0 | 0.00 | 0.00 | 0.00 | 75 | 1008.8 |
| 20260902231603 | 70 | 13 | 3.0 | 6.0 | 0.00 | 0.00 | 0.00 | 75 | 1008.8 |
| 20260902231503 | 70 | 12 | 3.0 | 6.0 | 0.00 | 0.00 | 0.00 | 74 | 1008.7 |
| 20260902231303 | 70 | 10 | 2.0 | 4.0 | 0.00 | 0.00 | 0.00 | 74 | 1008.7 |
| 20260902231203 | 70 | 9 | 3.0 | 4.0 | 0.00 | 0.00 | 0.00 | 74 | 1008.6 |
| 20260902231103 | 70 | 14 | 2.0 | 7.0 | 0.00 | 0.00 | 0.00 | 74 | 1008.5 |
| 20260902231003 | 70 | 16 | 2.0 | 7.0 | 0.00 | 0.00 | 0.00 | 74 | 1008.8 |
| 20260902230903 | 70 | 20 | 2.0 | 7.0 | 0.00 | 0.00 | 0.00 | 74 | 1008.7 |
| 20260902230803 | 70 | 20 | 3.0 | 7.0 | 0.00 | 0.00 | 0.00 | 74 | 1008.8 |
| 20260902230717 | 70 | 26 | 2.0 | 7.0 | 0.00 | 0.00 | 0.00 | 74 | 1008.7 |
| 20260902230603 | 70 | 21 | 4.0 | 7.0 | 0.00 | 0.00 | 0.00 | 74 | 1008.7 |
| 20260902230403 | 70 | 8 | 4.0 | 6.0 | 0.00 | 0.00 | 0.00 | 74 | 1008.7 |
| 20260902230303 | 70 | 359 | 4.0 | 7.0 | 0.00 | 0.00 | 0.00 | 73 | 1008.5 |
| 20260902230203 | 70 | 354 | 3.0 | 7.0 | 0.00 | 0.00 | 0.00 | 73 | 1008.4 |
| 20260902230118 | 70 | 356 | 3.0 | 7.0 | 0.00 | 0.00 | 0.00 | 73 | 1008.3 |
| 20260902230003 | 70 | 358 | 3.0 | 7.0 | 0.00 | 0.00 | 0.00 | 73 | 1008.4 |
| 20260902225803 | 70 | 358 | 4.0 | 7.0 | 0.00 | 0.00 | 0.00 | 74 | 1008.4 |
| 20260902225703 | 70 | 1 | 1.0 | 6.0 | 0.00 | 0.00 | 0.00 | 73 | 1008.5 |
| 20260902225603 | 70 | 2 | 3.0 | 6.0 | 0.00 | 0.00 | 0.00 | 73 | 1008.5 |
| 20260902225504 | 71 | 1 | 4.0 | 7.0 | 0.00 | 0.00 | 0.00 | 73 | 1008.6 |
| 20260902225404 | 71 | 358 | 3.0 | 7.0 | 0.00 | 0.00 | 0.00 | 73 | 1008.5 |
| 20260902225306 | 71 | 359 | 4.0 | 7.0 | 0.00 | 0.00 | 0.00 | 73 | 1008.5 |
| 20260902225217 | 71 | 358 | 4.0 | 7.0 | 0.00 | 0.00 | 0.00 | 73 | 1008.3 |
| 20260902225203 | 71 | 357 | 4.0 | 7.0 | 0.00 | 0.00 | 0.00 | 73 | 1008.3 |
| 20260902225103 | 71 | 355 | 4.0 | 7.0 | 0.00 | 0.00 | 0.00 | 73 | 1008.5 |
| 20260902224903 | 71 | 360 | 3.0 | 7.0 | 0.00 | 0.00 | 0.00 | 73 | 1008.4 |
| 20260902224803 | 71 | 1 | 4.0 | 7.0 | 0.00 | 0.00 | 0.00 | 73 | 1008.5 |
| 20260902224703 | 71 | 1 | 2.0 | 7.0 | 0.00 | 0.00 | 0.00 | 73 | 1008.6 |
| 20260902224603 | 71 | 1 | 4.0 | 7.0 | 0.00 | 0.00 | 0.00 | 73 | 1008.4 |
| 20260902224503 | 71 | 357 | 4.0 | 7.0 | 0.00 | 0.00 | 0.00 | 73 | 1008.6 |
| 20260902224403 | 71 | 360 | 4.0 | 8.0 | 0.00 | 0.00 | 0.00 | 73 | 1008.6 |
| 20260902224303 | 71 | 360 | 3.0 | 8.0 | 0.00 | 0.00 | 0.00 | 73 | 1008.4 |
| 20260902224203 | 71 | 355 | 3.0 | 8.0 | 0.00 | 0.00 | 0.00 | 73 | 1008.5 |
| 20260902224103 | 71 | 348 | 3.0 | 8.0 | 0.00 | 0.00 | 0.00 | 73 | 1008.5 |
| 20260902224004 | 71 | 354 | 3.0 | 8.0 | 0.00 | 0.00 | 0.00 | 73 | 1008.5 |
| 20260902223903 | 71 | 350 | 2.0 | 6.0 | 0.00 | 0.00 | 0.00 | 73 | 1008.4 |
| 20260902223818 | 71 | 351 | 4.0 | 7.0 | 0.00 | 0.00 | 0.00 | 73 | 1008.4 |
| 20260902223803 | 71 | 353 | 4.0 | 7.0 | 0.00 | 0.00 | 0.00 | 73 | 1008.4 |
| 20260902223703 | 71 | 358 | 3.0 | 7.0 | 0.00 | 0.00 | 0.00 | 73 | 1008.6 |
| 20260902223617 | 71 | 4 | 2.0 | 7.0 | 0.00 | 0.00 | 0.00 | 73 | 1008.4 |
| 20260902223503 | 71 | 4 | 4.0 | 7.0 | 0.00 | 0.00 | 0.00 | 72 | 1008.7 |
| 20260902223418 | 71 | 7 | 4.0 | 7.0 | 0.00 | 0.00 | 0.00 | 72 | 1008.5 |
| 20260902223303 | 71 | 7 | 4.0 | 7.0 | 0.00 | 0.00 | 0.00 | 72 | 1008.5 |
| 20260902223217 | 71 | 5 | 4.0 | 7.0 | 0.00 | 0.00 | 0.00 | 72 | 1008.6 |
| 20260902223103 | 71 | 4 | 3.0 | 6.0 | 0.00 | 0.00 | 0.00 | 72 | 1008.7 |
| 20260902222903 | 71 | 354 | 3.0 | 6.0 | 0.00 | 0.00 | 0.00 | 72 | 1008.6 |
| 20260902222803 | 71 | 354 | 3.0 | 6.0 | 0.00 | 0.00 | 0.00 | 72 | 1008.6 |
| 20260902222703 | 71 | 3 | 3.0 | 6.0 | 0.00 | 0.00 | 0.00 | 71 | 1008.6 |
| 20260902222603 | 72 | 360 | 3.0 | 7.0 | 0.00 | 0.00 | 0.00 | 71 | 1008.6 |
| 20260902222503 | 72 | 358 | 3.0 | 7.0 | 0.00 | 0.00 | 0.00 | 71 | 1008.5 |
| 20260902222403 | 72 | 356 | 3.0 | 7.0 | 0.00 | 0.00 | 0.00 | 71 | 1008.3 |
| 20260902222317 | 72 | 354 | 2.0 | 7.0 | 0.00 | 0.00 | 0.00 | 71 | 1008.5 |
| 20260902222306 | 72 | 356 | 2.0 | 7.0 | 0.00 | 0.00 | 0.00 | 71 | 1008.5 |
| 20260902222203 | 72 | 351 | 2.0 | 9.0 | 0.00 | 0.00 | 0.00 | 71 | 1008.5 |
| 20260902222003 | 72 | 342 | 4.0 | 9.0 | 0.00 | 0.00 | 0.00 | 71 | 1008.5 |
| 20260902221903 | 72 | 341 | 4.0 | 9.0 | 0.00 | 0.00 | 0.00 | 71 | 1008.4 |
| 20260902221808 | 72 | 341 | 4.0 | 9.0 | 0.00 | 0.00 | 0.00 | 70 | 1008.5 |
| 20260902221716 | 72 | 334 | 5.0 | 9.0 | 0.00 | 0.00 | 0.00 | 70 | 1008.6 |
| 20260902221703 | 72 | 336 | 5.0 | 9.0 | 0.00 | 0.00 | 0.00 | 70 | 1008.6 |
| 20260902221603 | 72 | 341 | 3.0 | 8.0 | 0.00 | 0.00 | 0.00 | 70 | 1008.4 |
| 20260902221403 | 72 | 353 | 2.0 | 8.0 | 0.00 | 0.00 | 0.00 | 70 | 1008.5 |
| 20260902221303 | 72 | 355 | 3.0 | 8.0 | 0.00 | 0.00 | 0.00 | 70 | 1008.6 |
| 20260902221203 | 72 | 359 | 4.0 | 8.0 | 0.00 | 0.00 | 0.00 | 70 | 1008.5 |
| 20260902221103 | 72 | 1 | 4.0 | 6.0 | 0.00 | 0.00 | 0.00 | 70 | 1008.5 |
| 20260902221003 | 72 | 358 | 4.0 | 6.0 | 0.00 | 0.00 | 0.00 | 70 | 1008.6 |
| 20260902220904 | 72 | 355 | 2.0 | 7.0 | 0.00 | 0.00 | 0.00 | 70 | 1008.5 |
| 20260902220803 | 72 | 3 | 2.0 | 7.0 | 0.00 | 0.00 | 0.00 | 70 | 1008.4 |
| 20260902220703 | 72 | 4 | 3.0 | 7.0 | 0.00 | 0.00 | 0.00 | 70 | 1008.6 |
| 20260902220603 | 72 | 4 | 4.0 | 7.0 | 0.00 | 0.00 | 0.00 | 70 | 1008.6 |
| 20260902220503 | 72 | 5 | 2.0 | 7.0 | 0.00 | 0.00 | 0.00 | 70 | 1008.5 |
| 20260902220403 | 72 | 1 | 4.0 | 8.0 | 0.00 | 0.00 | 0.00 | 70 | 1008.6 |
| 20260902220303 | 72 | 350 | 3.0 | 8.0 | 0.00 | 0.00 | 0.00 | 70 | 1008.3 |
| 20260902220203 | 72 | 346 | 2.0 | 8.0 | 0.00 | 0.00 | 0.00 | 70 | 1008.3 |
| 20260902220003 | 73 | 348 | 4.0 | 9.0 | 0.00 | 0.00 | 0.00 | 70 | 1008.4 |
| 20260902215903 | 73 | 345 | 4.0 | 9.0 | 0.00 | 0.00 | 0.00 | 69 | 1008.5 |
| 20260902215803 | 73 | 352 | 3.0 | 9.0 | 0.00 | 0.00 | 0.00 | 70 | 1008.4 |
| 20260902215703 | 73 | 357 | 4.0 | 9.0 | 0.00 | 0.00 | 0.00 | 69 | 1008.3 |
| 20260902215603 | 73 | 356 | 6.0 | 9.0 | 0.00 | 0.00 | 0.00 | 69 | 1008.2 |
| 20260902215503 | 73 | 358 | 5.0 | 8.0 | 0.00 | 0.00 | 0.00 | 69 | 1008.3 |
| 20260902215403 | 73 | 6 | 4.0 | 7.0 | 0.00 | 0.00 | 0.00 | 69 | 1008.5 |
| 20260902215306 | 73 | 4 | 4.0 | 11.0 | 0.00 | 0.00 | 0.00 | 69 | 1008.5 |
| 20260902215204 | 73 | 359 | 3.0 | 11.0 | 0.00 | 0.00 | 0.00 | 69 | 1008.5 |
| 20260902215118 | 73 | 355 | 2.0 | 11.0 | 0.00 | 0.00 | 0.00 | 69 | 1008.3 |
| 20260902215103 | 73 | 356 | 4.0 | 11.0 | 0.00 | 0.00 | 0.00 | 69 | 1008.5 |
| 20260902215003 | 73 | 352 | 4.0 | 11.0 | 0.00 | 0.00 | 0.00 | 69 | 1008.4 |
| 20260902214803 | 73 | 351 | 5.0 | 14.0 | 0.00 | 0.00 | 0.00 | 69 | 1008.6 |
| 20260902214718 | 73 | 358 | 4.0 | 14.0 | 0.00 | 0.00 | 0.00 | 69 | 1008.4 |
| 20260902214703 | 73 | 360 | 4.0 | 14.0 | 0.00 | 0.00 | 0.00 | 69 | 1008.6 |
| 20260902214603 | 73 | 3 | 6.0 | 14.0 | 0.00 | 0.00 | 0.00 | 69 | 1008.4 |
| 20260902214403 | 73 | 2 | 5.0 | 14.0 | 0.00 | 0.00 | 0.00 | 68 | 1008.4 |
| 20260902214303 | 73 | 5 | 4.0 | 14.0 | 0.00 | 0.00 | 0.00 | 68 | 1008.4 |
| 20260902214203 | 73 | 351 | 4.0 | 7.0 | 0.00 | 0.00 | 0.00 | 68 | 1008.4 |
| 20260902214103 | 73 | 346 | 4.0 | 11.0 | 0.00 | 0.00 | 0.00 | 68 | 1008.5 |
| 20260902214003 | 73 | 349 | 5.0 | 11.0 | 0.00 | 0.00 | 0.00 | 68 | 1008.4 |
| 20260902213903 | 73 | 346 | 3.0 | 11.0 | 0.00 | 0.00 | 0.00 | 68 | 1008.4 |
| 20260902213803 | 73 | 340 | 4.0 | 11.0 | 0.00 | 0.00 | 0.00 | 68 | 1008.4 |
| 20260902213718 | 74 | 343 | 4.0 | 11.0 | 0.00 | 0.00 | 0.00 | 68 | 1008.6 |
| 20260902213703 | 74 | 344 | 4.0 | 11.0 | 0.00 | 0.00 | 0.00 | 68 | 1008.6 |
| 20260902213603 | 74 | 344 | 5.0 | 11.0 | 0.00 | 0.00 | 0.00 | 68 | 1008.5 |
| 20260902213403 | 74 | 354 | 4.0 | 11.0 | 0.00 | 0.00 | 0.00 | 68 | 1008.4 |
| 20260902213303 | 74 | 351 | 4.0 | 11.0 | 0.00 | 0.00 | 0.00 | 68 | 1008.5 |
| 20260902213203 | 74 | 355 | 4.0 | 11.0 | 0.00 | 0.00 | 0.00 | 68 | 1008.3 |
| 20260902213103 | 74 | 355 | 2.0 | 11.0 | 0.00 | 0.00 | 0.00 | 68 | 1008.7 |
| 20260902213003 | 74 | 356 | 5.0 | 11.0 | 0.00 | 0.00 | 0.00 | 68 | 1008.4 |
| 20260902212903 | 74 | 355 | 5.0 | 11.0 | 0.00 | 0.00 | 0.00 | 68 | 1008.5 |
| 20260902212803 | 74 | 360 | 6.0 | 11.0 | 0.00 | 0.00 | 0.00 | 68 | 1008.7 |
| 20260902212703 | 74 | 4 | 8.0 | 11.0 | 0.00 | 0.00 | 0.00 | 68 | 1008.4 |
| 20260902212603 | 74 | 8 | 5.0 | 9.0 | 0.00 | 0.00 | 0.00 | 68 | 1008.5 |
| 20260902212503 | 74 | 1 | 4.0 | 9.0 | 0.00 | 0.00 | 0.00 | 67 | 1008.6 |
| 20260902212403 | 74 | 1 | 4.0 | 9.0 | 0.00 | 0.00 | 0.00 | 67 | 1008.5 |
| 20260902212305 | 74 | 358 | 4.0 | 9.0 | 0.00 | 0.00 | 0.00 | 67 | 1008.5 |
| 20260902212203 | 74 | 341 | 4.0 | 11.0 | 0.00 | 0.00 | 0.00 | 67 | 1008.6 |
| 20260902212103 | 74 | 346 | 4.0 | 11.0 | 0.00 | 0.00 | 0.00 | 67 | 1008.5 |
| 20260902212003 | 74 | 345 | 4.0 | 11.0 | 0.00 | 0.00 | 0.00 | 67 | 1008.4 |
| 20260902211903 | 74 | 346 | 4.0 | 13.0 | 0.00 | 0.00 | 0.00 | 67 | 1008.5 |
| 20260902211803 | 74 | 344 | 4.0 | 13.0 | 0.00 | 0.00 | 0.00 | 67 | 1008.4 |
| 20260902211703 | 74 | 353 | 6.0 | 13.0 | 0.00 | 0.00 | 0.00 | 67 | 1008.5 |
| 20260902211603 | 74 | 350 | 4.0 | 13.0 | 0.00 | 0.00 | 0.00 | 67 | 1008.4 |
| 20260902211517 | 74 | 351 | 4.0 | 13.0 | 0.00 | 0.00 | 0.00 | 67 | 1008.5 |
| 20260902211503 | 74 | 355 | 5.0 | 13.0 | 0.00 | 0.00 | 0.00 | 67 | 1008.6 |
| 20260902211403 | 74 | 351 | 10.0 | 13.0 | 0.00 | 0.00 | 0.00 | 67 | 1008.8 |
| 20260902211205 | 74 | 11 | 4.0 | 11.0 | 0.00 | 0.00 | 0.00 | 67 | 1008.7 |
| 20260902211117 | 74 | 11 | 5.0 | 11.0 | 0.00 | 0.00 | 0.00 | 67 | 1008.8 |
| 20260902211103 | 74 | 11 | 4.0 | 11.0 | 0.00 | 0.00 | 0.00 | 67 | 1008.7 |
| 20260902211003 | 74 | 12 | 3.0 | 11.0 | 0.00 | 0.00 | 0.00 | 67 | 1008.7 |
| 20260902210803 | 74 | 12 | 4.0 | 11.0 | 0.00 | 0.00 | 0.00 | 67 | 1008.7 |
| 20260902210703 | 74 | 356 | 4.0 | 11.0 | 0.00 | 0.00 | 0.00 | 67 | 1008.6 |
| 20260902210619 | 74 | 352 | 5.0 | 11.0 | 0.00 | 0.00 | 0.00 | 67 | 1008.7 |
| 20260902210603 | 74 | 347 | 5.0 | 11.0 | 0.00 | 0.00 | 0.00 | 67 | 1008.7 |
| 20260902210503 | 74 | 339 | 6.0 | 11.0 | 0.00 | 0.00 | 0.00 | 67 | 1008.5 |
| 20260902210303 | 74 | 332 | 7.0 | 11.0 | 0.00 | 0.00 | 0.00 | 67 | 1008.5 |
| 20260902210203 | 75 | 335 | 7.0 | 13.0 | 0.00 | 0.00 | 0.00 | 66 | 1008.6 |
| 20260902210117 | 75 | 339 | 6.0 | 15.0 | 0.00 | 0.00 | 0.00 | 66 | 1008.5 |
| 20260902210103 | 75 | 342 | 6.0 | 15.0 | 0.00 | 0.00 | 0.00 | 66 | 1008.5 |
| 20260902210003 | 75 | 342 | 6.0 | 15.0 | 0.00 | 0.00 | 0.00 | 66 | 1008.6 |
| 20260902205803 | 75 | 342 | 7.0 | 15.0 | 0.00 | 0.00 | 0.00 | 66 | 1008.5 |
| 20260902205703 | 75 | 357 | 5.0 | 15.0 | 0.00 | 0.00 | 0.00 | 66 | 1008.6 |
| 20260902205616 | 75 | 356 | 5.0 | 15.0 | 0.00 | 0.00 | 0.00 | 66 | 1008.6 |
| 20260902205603 | 75 | 354 | 5.0 | 15.0 | 0.00 | 0.00 | 0.00 | 66 | 1008.6 |
| 20260902205503 | 75 | 358 | 4.0 | 17.0 | 0.00 | 0.00 | 0.00 | 65 | 1008.6 |
| 20260902205418 | 75 | 356 | 3.0 | 17.0 | 0.00 | 0.00 | 0.00 | 65 | 1008.5 |
| 20260902205306 | 75 | 354 | 3.0 | 17.0 | 0.00 | 0.00 | 0.00 | 65 | 1008.5 |
| 20260902205103 | 75 | 354 | 6.0 | 17.0 | 0.00 | 0.00 | 0.00 | 66 | 1008.6 |
| 20260902205004 | 75 | 357 | 11.0 | 17.0 | 0.00 | 0.00 | 0.00 | 65 | 1008.8 |
| 20260902204903 | 75 | 356 | 11.0 | 17.0 | 0.00 | 0.00 | 0.00 | 65 | 1008.8 |
| 20260902204803 | 75 | 359 | 5.0 | 13.0 | 0.00 | 0.00 | 0.00 | 65 | 1008.7 |
| 20260902204703 | 75 | 353 | 7.0 | 11.0 | 0.00 | 0.00 | 0.00 | 65 | 1008.7 |
| 20260902204603 | 75 | 353 | 4.0 | 13.0 | 0.00 | 0.00 | 0.00 | 65 | 1008.7 |
| 20260902204517 | 75 | 350 | 7.0 | 13.0 | 0.00 | 0.00 | 0.00 | 65 | 1008.7 |
| 20260902204503 | 75 | 347 | 7.0 | 13.0 | 0.00 | 0.00 | 0.00 | 65 | 1008.7 |
| 20260902204403 | 75 | 350 | 7.0 | 13.0 | 0.00 | 0.00 | 0.00 | 65 | 1008.7 |
| 20260902204203 | 75 | 348 | 4.0 | 13.0 | 0.00 | 0.00 | 0.00 | 64 | 1008.7 |
| 20260902204103 | 75 | 346 | 6.0 | 13.0 | 0.00 | 0.00 | 0.00 | 64 | 1009.0 |
| 20260902204003 | 76 | 354 | 5.0 | 14.0 | 0.00 | 0.00 | 0.00 | 64 | 1008.9 |
| 20260902203916 | 76 | 357 | 3.0 | 14.0 | 0.00 | 0.00 | 0.00 | 64 | 1008.7 |
| 20260902203903 | 75 | 357 | 4.0 | 14.0 | 0.00 | 0.00 | 0.00 | 64 | 1008.9 |
| 20260902203803 | 75 | 356 | 4.0 | 15.0 | 0.00 | 0.00 | 0.00 | 64 | 1008.4 |
| 20260902203603 | 75 | 360 | 6.0 | 15.0 | 0.00 | 0.00 | 0.00 | 65 | 1008.8 |
| 20260902203503 | 75 | 356 | 8.0 | 15.0 | 0.00 | 0.00 | 0.00 | 64 | 1008.9 |
| 20260902203417 | 75 | 355 | 8.0 | 16.0 | 0.00 | 0.00 | 0.00 | 64 | 1008.9 |
| 20260902203403 | 75 | 354 | 8.0 | 16.0 | 0.00 | 0.00 | 0.00 | 64 | 1008.9 |
| 20260902203303 | 75 | 352 | 10.0 | 16.0 | 0.00 | 0.00 | 0.00 | 64 | 1008.7 |
| 20260902203103 | 75 | 350 | 7.0 | 16.0 | 0.00 | 0.00 | 0.00 | 63 | 1008.8 |
| 20260902203003 | 75 | 350 | 8.0 | 16.0 | 0.00 | 0.00 | 0.00 | 63 | 1009.0 |
| 20260902202903 | 75 | 356 | 8.0 | 16.0 | 0.00 | 0.00 | 0.00 | 63 | 1008.8 |
| 20260902202817 | 75 | 354 | 6.0 | 11.0 | 0.00 | 0.00 | 0.00 | 63 | 1008.8 |
| 20260902202803 | 75 | 353 | 6.0 | 11.0 | 0.00 | 0.00 | 0.00 | 63 | 1008.8 |
| 20260902202703 | 75 | 358 | 5.0 | 11.0 | 0.00 | 0.00 | 0.00 | 63 | 1009.0 |
| 20260902202503 | 76 | 3 | 8.0 | 14.0 | 0.00 | 0.00 | 0.00 | 63 | 1008.7 |
| 20260902202403 | 76 | 3 | 8.0 | 14.0 | 0.00 | 0.00 | 0.00 | 63 | 1008.8 |
| 20260902202306 | 76 | 9 | 3.0 | 14.0 | 0.00 | 0.00 | 0.00 | 62 | 1008.9 |
| 20260902202203 | 76 | 357 | 2.0 | 14.0 | 0.00 | 0.00 | 0.00 | 62 | 1008.9 |
| 20260902202103 | 76 | 350 | 6.0 | 14.0 | 0.00 | 0.00 | 0.00 | 62 | 1008.9 |
| 20260902202004 | 76 | 355 | 6.0 | 13.0 | 0.00 | 0.00 | 0.00 | 62 | 1009.1 |
| 20260902201904 | 76 | 353 | 4.0 | 13.0 | 0.00 | 0.00 | 0.00 | 62 | 1008.8 |
| 20260902201803 | 76 | 352 | 5.0 | 13.0 | 0.00 | 0.00 | 0.00 | 62 | 1009.0 |
| 20260902201703 | 76 | 354 | 5.0 | 11.0 | 0.00 | 0.00 | 0.00 | 62 | 1008.9 |
| 20260902201603 | 76 | 356 | 4.0 | 11.0 | 0.00 | 0.00 | 0.00 | 62 | 1009.0 |
| 20260902201503 | 76 | 350 | 4.0 | 11.0 | 0.00 | 0.00 | 0.00 | 62 | 1008.9 |
| 20260902201410 | 76 | 351 | 8.0 | 14.0 | 0.00 | 0.00 | 0.00 | 62 | 1009.1 |
| 20260902201303 | 76 | 352 | 6.0 | 17.0 | 0.00 | 0.00 | 0.00 | 62 | 1009.0 |
| 20260902201203 | 76 | 347 | 6.0 | 17.0 | 0.00 | 0.00 | 0.00 | 62 | 1009.0 |
| 20260902201103 | 76 | 341 | 6.0 | 17.0 | 0.00 | 0.00 | 0.00 | 62 | 1009.1 |
| 20260902201003 | 76 | 348 | 4.0 | 17.0 | 0.00 | 0.00 | 0.00 | 62 | 1008.9 |
| 20260902200903 | 76 | 350 | 8.0 | 17.0 | 0.00 | 0.00 | 0.00 | 62 | 1008.9 |
| 20260902200803 | 76 | 346 | 11.0 | 20.0 | 0.00 | 0.00 | 0.00 | 62 | 1009.0 |
| 20260902200709 | 76 | 1 | 4.0 | 20.0 | 0.00 | 0.00 | 0.00 | 62 | 1009.0 |
| 20260902200603 | 76 | 9 | 7.0 | 20.0 | 0.00 | 0.00 | 0.00 | 62 | 1009.0 |
| 20260902200503 | 76 | 5 | 7.0 | 20.0 | 0.00 | 0.00 | 0.00 | 62 | 1009.1 |
| 20260902200403 | 76 | 4 | 6.0 | 20.0 | 0.00 | 0.00 | 0.00 | 62 | 1009.1 |
| 20260902200305 | 76 | 7 | 7.0 | 16.0 | 0.00 | 0.00 | 0.00 | 63 | 1009.1 |
| 20260902200103 | 75 | 359 | 8.0 | 16.0 | 0.00 | 0.00 | 0.00 | 63 | 1008.9 |
| 20260902200004 | 75 | 10 | 8.0 | 14.0 | 0.00 | 0.00 | 0.00 | 63 | 1009.1 |
| 20260902195903 | 76 | 358 | 6.0 | 14.0 | 0.00 | 0.00 | 0.00 | 63 | 1009.1 |
| 20260902195603 | 75 | 325 | 8.0 | 17.0 | 0.00 | 0.00 | 0.00 | 63 | 1009.1 |
| 20260902195503 | 75 | 320 | 10.0 | 17.0 | 0.00 | 0.00 | 0.00 | 62 | 1009.0 |
| 20260902195417 | 76 | 318 | 7.0 | 17.0 | 0.00 | 0.00 | 0.00 | 62 | 1009.0 |
| 20260902195403 | 76 | 321 | 7.0 | 17.0 | 0.00 | 0.00 | 0.00 | 62 | 1009.0 |
| 20260902195306 | 76 | 333 | 8.0 | 17.0 | 0.00 | 0.00 | 0.00 | 62 | 1009.0 |
| 20260902195103 | 75 | 341 | 9.0 | 16.0 | 0.00 | 0.00 | 0.00 | 63 | 1009.1 |
| 20260902195018 | 75 | 339 | 10.0 | 16.0 | 0.00 | 0.00 | 0.00 | 63 | 1009.1 |
| 20260902195003 | 75 | 345 | 10.0 | 16.0 | 0.00 | 0.00 | 0.00 | 63 | 1009.1 |
| 20260902194903 | 76 | 350 | 7.0 | 16.0 | 0.00 | 0.00 | 0.00 | 63 | 1009.1 |
| 20260902194703 | 75 | 1 | 9.0 | 16.0 | 0.00 | 0.00 | 0.00 | 63 | 1009.0 |
| 20260902194618 | 75 | 4 | 6.0 | 14.0 | 0.00 | 0.00 | 0.00 | 63 | 1009.0 |
| 20260902194603 | 75 | 1 | 6.0 | 14.0 | 0.00 | 0.00 | 0.00 | 63 | 1009.0 |
| 20260902194503 | 75 | 357 | 6.0 | 15.0 | 0.00 | 0.00 | 0.00 | 63 | 1009.2 |
| 20260902194303 | 76 | 355 | 5.0 | 15.0 | 0.00 | 0.00 | 0.00 | 63 | 1009.0 |
| 20260902194203 | 76 | 352 | 4.0 | 15.0 | 0.00 | 0.00 | 0.00 | 63 | 1009.3 |
| 20260902194103 | 75 | 348 | 7.0 | 15.0 | 0.00 | 0.00 | 0.00 | 63 | 1009.1 |
| 20260902194003 | 75 | 340 | 10.0 | 15.0 | 0.00 | 0.00 | 0.00 | 63 | 1009.1 |
| 20260902193903 | 76 | 334 | 6.0 | 14.0 | 0.00 | 0.00 | 0.00 | 63 | 1009.2 |
| 20260902193803 | 76 | 341 | 6.0 | 11.0 | 0.00 | 0.00 | 0.00 | 63 | 1009.0 |
| 20260902193703 | 76 | 329 | 6.0 | 11.0 | 0.00 | 0.00 | 0.00 | 63 | 1009.1 |
| 20260902193618 | 76 | 329 | 5.0 | 13.0 | 0.00 | 0.00 | 0.00 | 64 | 1009.1 |
| 20260902193603 | 76 | 331 | 5.0 | 13.0 | 0.00 | 0.00 | 0.00 | 64 | 1009.1 |
| 20260902193503 | 76 | 328 | 2.0 | 16.0 | 0.00 | 0.00 | 0.00 | 64 | 1009.1 |
| 20260902193318 | 76 | 333 | 5.0 | 16.0 | 0.00 | 0.00 | 0.00 | 64 | 1009.3 |
| 20260902193303 | 76 | 336 | 5.0 | 16.0 | 0.00 | 0.00 | 0.00 | 64 | 1009.3 |
| 20260902193203 | 75 | 340 | 7.0 | 16.0 | 0.00 | 0.00 | 0.00 | 64 | 1009.2 |
| 20260902193003 | 76 | 341 | 4.0 | 17.0 | 0.00 | 0.00 | 0.00 | 64 | 1009.3 |
| 20260902192903 | 76 | 336 | 5.0 | 17.0 | 0.00 | 0.00 | 0.00 | 64 | 1009.2 |
| 20260902192803 | 75 | 336 | 3.0 | 17.0 | 0.00 | 0.00 | 0.00 | 65 | 1009.1 |
| 20260902192703 | 75 | 338 | 8.0 | 17.0 | 0.00 | 0.00 | 0.00 | 65 | 1009.0 |
| 20260902192618 | 75 | 343 | 11.0 | 17.0 | 0.00 | 0.00 | 0.00 | 64 | 1009.2 |
| 20260902192603 | 75 | 342 | 11.0 | 17.0 | 0.00 | 0.00 | 0.00 | 64 | 1009.2 |
| 20260902192503 | 75 | 346 | 8.0 | 16.0 | 0.00 | 0.00 | 0.00 | 65 | 1009.1 |
| 20260902192306 | 76 | 348 | 4.0 | 15.0 | 0.00 | 0.00 | 0.00 | 64 | 1009.1 |
| 20260902192218 | 75 | 344 | 6.0 | 15.0 | 0.00 | 0.00 | 0.00 | 64 | 1009.3 |
| 20260902192203 | 75 | 345 | 6.0 | 15.0 | 0.00 | 0.00 | 0.00 | 64 | 1009.3 |
| 20260902192103 | 75 | 348 | 9.0 | 15.0 | 0.00 | 0.00 | 0.00 | 64 | 1009.3 |
| 20260902191908 | 75 | 356 | 8.0 | 23.0 | 0.00 | 0.00 | 0.00 | 65 | 1009.2 |
| 20260902191817 | 75 | 352 | 5.0 | 23.0 | 0.00 | 0.00 | 0.00 | 65 | 1009.3 |
| 20260902191803 | 75 | 349 | 5.0 | 23.0 | 0.00 | 0.00 | 0.00 | 65 | 1009.3 |
| 20260902191703 | 75 | 345 | 9.0 | 23.0 | 0.00 | 0.00 | 0.00 | 65 | 1009.3 |
| 20260902191503 | 74 | 336 | 12.0 | 23.0 | 0.00 | 0.00 | 0.00 | 65 | 1009.2 |
| 20260902191403 | 74 | 335 | 15.0 | 23.0 | 0.00 | 0.00 | 0.00 | 65 | 1009.5 |
| 20260902191303 | 75 | 348 | 11.0 | 21.0 | 0.00 | 0.00 | 0.00 | 65 | 1009.5 |
| 20260902191203 | 75 | 343 | 8.0 | 21.0 | 0.00 | 0.00 | 0.00 | 65 | 1009.3 |
| 20260902191103 | 75 | 331 | 12.0 | 21.0 | 0.00 | 0.00 | 0.00 | 65 | 1009.4 |
| 20260902191003 | 74 | 324 | 12.0 | 21.0 | 0.00 | 0.00 | 0.00 | 64 | 1009.3 |
| 20260902190903 | 75 | 324 | 8.0 | 20.0 | 0.00 | 0.00 | 0.00 | 65 | 1009.4 |
| 20260902190803 | 75 | 328 | 8.0 | 22.0 | 0.00 | 0.00 | 0.00 | 65 | 1009.5 |
| 20260902190709 | 75 | 340 | 12.0 | 22.0 | 0.00 | 0.00 | 0.00 | 64 | 1009.5 |
| 20260902190603 | 75 | 350 | 12.0 | 22.0 | 0.00 | 0.00 | 0.00 | 64 | 1009.4 |
| 20260902190503 | 75 | 8 | 8.0 | 22.0 | 0.00 | 0.00 | 0.00 | 64 | 1009.8 |
| 20260902190403 | 75 | 4 | 8.0 | 22.0 | 0.00 | 0.00 | 0.00 | 65 | 1009.4 |
| 20260902190303 | 75 | 349 | 9.0 | 21.0 | 0.00 | 0.00 | 0.00 | 64 | 1009.7 |
| 20260902190203 | 75 | 342 | 6.0 | 21.0 | 0.00 | 0.00 | 0.00 | 64 | 1009.5 |
| 20260902190103 | 75 | 351 | 8.0 | 21.0 | 0.00 | 0.00 | 0.00 | 64 | 1009.4 |
| 20260902190003 | 75 | 350 | 6.0 | 21.0 | 0.00 | 0.00 | 0.00 | 63 | 1009.5 |
| 20260902185903 | 75 | 350 | 8.0 | 21.0 | 0.00 | 0.00 | 0.00 | 64 | 1009.7 |
| 20260902185803 | 75 | 355 | 11.0 | 21.0 | 0.00 | 0.00 | 0.00 | 64 | 1009.4 |
| 20260902185717 | 75 | 351 | 11.0 | 21.0 | 0.00 | 0.00 | 0.00 | 64 | 1009.5 |
| 20260902185703 | 75 | 354 | 11.0 | 21.0 | 0.00 | 0.00 | 0.00 | 64 | 1009.5 |
| 20260902185603 | 75 | 350 | 11.0 | 16.0 | 0.00 | 0.00 | 0.00 | 64 | 1009.5 |
| 20260902185518 | 75 | 352 | 8.0 | 16.0 | 0.00 | 0.00 | 0.00 | 64 | 1009.6 |
| 20260902185403 | 75 | 346 | 11.0 | 18.0 | 0.00 | 0.00 | 0.00 | 64 | 1009.6 |
| 20260902185218 | 76 | 348 | 6.0 | 18.0 | 0.00 | 0.00 | 0.00 | 63 | 1009.5 |
| 20260902185204 | 76 | 347 | 6.0 | 18.0 | 0.00 | 0.00 | 0.00 | 63 | 1009.5 |
| 20260902185103 | 76 | 357 | 5.0 | 18.0 | 0.00 | 0.00 | 0.00 | 64 | 1009.6 |
| 20260902184903 | 75 | 341 | 7.0 | 22.0 | 0.00 | 0.00 | 0.00 | 64 | 1009.5 |
| 20260902184803 | 75 | 348 | 7.0 | 22.0 | 0.00 | 0.00 | 0.00 | 64 | 1009.6 |
| 20260902184703 | 75 | 356 | 8.0 | 22.0 | 0.00 | 0.00 | 0.00 | 64 | 1009.6 |
| 20260902184618 | 75 | 345 | 8.0 | 22.0 | 0.00 | 0.00 | 0.00 | 65 | 1009.7 |
| 20260902184603 | 75 | 343 | 8.0 | 22.0 | 0.00 | 0.00 | 0.00 | 65 | 1009.7 |
| 20260902184503 | 74 | 342 | 13.0 | 22.0 | 0.00 | 0.00 | 0.00 | 65 | 1009.5 |
| 20260902184303 | 74 | 340 | 8.0 | 20.0 | 0.00 | 0.00 | 0.00 | 66 | 1010.0 |
| 20260902184203 | 74 | 335 | 12.0 | 23.0 | 0.00 | 0.00 | 0.00 | 65 | 1009.7 |
| 20260902184103 | 74 | 337 | 12.0 | 23.0 | 0.00 | 0.00 | 0.00 | 65 | 1009.6 |
| 20260902184003 | 75 | 344 | 6.0 | 23.0 | 0.00 | 0.00 | 0.00 | 65 | 1010.0 |
| 20260902183903 | 74 | 337 | 8.0 | 23.0 | 0.00 | 0.00 | 0.00 | 65 | 1009.8 |
| 20260902183803 | 74 | 336 | 9.0 | 23.0 | 0.00 | 0.00 | 0.00 | 65 | 1009.8 |
| 20260902183703 | 74 | 328 | 10.0 | 23.0 | 0.00 | 0.00 | 0.00 | 66 | 1009.9 |
| 20260902183603 | 74 | 327 | 12.0 | 21.0 | 0.00 | 0.00 | 0.00 | 65 | 1009.8 |
| 20260902183503 | 74 | 325 | 11.0 | 21.0 | 0.00 | 0.00 | 0.00 | 65 | 1009.9 |
| 20260902183303 | 74 | 340 | 10.0 | 21.0 | 0.00 | 0.00 | 0.00 | 66 | 1009.9 |
| 20260902183203 | 74 | 345 | 10.0 | 21.0 | 0.00 | 0.00 | 0.00 | 66 | 1010.0 |
| 20260902183113 | 74 | 341 | 10.0 | 21.0 | 0.00 | 0.00 | 0.00 | 66 | 1009.9 |
| 20260902183017 | 74 | 354 | 10.0 | 20.0 | 0.00 | 0.00 | 0.00 | 66 | 1010.0 |
| 20260902183003 | 74 | 353 | 10.0 | 20.0 | 0.00 | 0.00 | 0.00 | 66 | 1010.0 |
| 20260902182903 | 74 | 355 | 11.0 | 20.0 | 0.00 | 0.00 | 0.00 | 65 | 1010.0 |
| 20260902182703 | 75 | 334 | 8.0 | 21.0 | 0.00 | 0.00 | 0.00 | 64 | 1009.9 |
| 20260902182603 | 75 | 346 | 5.0 | 21.0 | 0.00 | 0.00 | 0.00 | 65 | 1010.0 |
| 20260902182518 | 74 | 345 | 10.0 | 21.0 | 0.00 | 0.00 | 0.00 | 65 | 1010.2 |
| 20260902182503 | 74 | 344 | 10.0 | 21.0 | 0.00 | 0.00 | 0.00 | 65 | 1010.2 |
| 20260902182403 | 74 | 342 | 11.0 | 21.0 | 0.00 | 0.00 | 0.00 | 65 | 1010.2 |
| 20260902182203 | 75 | 359 | 9.0 | 17.0 | 0.00 | 0.00 | 0.00 | 65 | 1010.3 |
| 20260902182103 | 74 | 356 | 8.0 | 21.0 | 0.00 | 0.00 | 0.00 | 64 | 1010.0 |
| 20260902182004 | 74 | 351 | 8.0 | 21.0 | 0.00 | 0.00 | 0.00 | 65 | 1010.2 |
| 20260902181903 | 74 | 351 | 8.0 | 21.0 | 0.00 | 0.00 | 0.00 | 65 | 1010.3 |
| 20260902181803 | 74 | 358 | 6.0 | 21.0 | 0.00 | 0.00 | 0.00 | 64 | 1010.3 |
| 20260902181703 | 74 | 1 | 7.0 | 21.0 | 0.00 | 0.00 | 0.00 | 65 | 1010.4 |
| 20260902181603 | 74 | 355 | 12.0 | 21.0 | 0.00 | 0.00 | 0.00 | 65 | 1010.5 |
| 20260902181503 | 74 | 349 | 9.0 | 20.0 | 0.00 | 0.00 | 0.00 | 66 | 1010.7 |
| 20260902181417 | 74 | 343 | 8.0 | 20.0 | 0.00 | 0.00 | 0.00 | 65 | 1010.8 |
| 20260902181403 | 74 | 342 | 8.0 | 20.0 | 0.00 | 0.00 | 0.00 | 65 | 1010.8 |
| 20260902181303 | 74 | 330 | 8.0 | 22.0 | 0.00 | 0.00 | 0.00 | 65 | 1010.4 |
| 20260902181103 | 74 | 327 | 10.0 | 22.0 | 0.00 | 0.00 | 0.00 | 66 | 1010.5 |
| 20260902181003 | 74 | 334 | 10.0 | 22.0 | 0.00 | 0.00 | 0.00 | 66 | 1010.6 |
| 20260902180903 | 74 | 344 | 8.0 | 22.0 | 0.00 | 0.00 | 0.00 | 65 | 1010.6 |
| 20260902180803 | 74 | 344 | 11.0 | 22.0 | 0.00 | 0.00 | 0.00 | 65 | 1010.8 |
| 20260902180703 | 74 | 349 | 11.0 | 17.0 | 0.00 | 0.00 | 0.00 | 66 | 1010.9 |
| 20260902180603 | 74 | 349 | 9.0 | 16.0 | 0.00 | 0.00 | 0.00 | 65 | 1010.7 |
| 20260902180503 | 74 | 350 | 8.0 | 16.0 | 0.00 | 0.00 | 0.00 | 66 | 1010.6 |
| 20260902180303 | 74 | 351 | 7.0 | 20.0 | 0.00 | 0.00 | 0.00 | 66 | 1010.8 |
| 20260902180203 | 74 | 346 | 8.0 | 27.0 | 0.00 | 0.00 | 0.00 | 66 | 1010.8 |
| 20260902180006 | 74 | 356 | 7.0 | 27.0 | 0.00 | 0.00 | 0.00 | 66 | 1010.7 |
| 20260902175903 | 74 | 358 | 8.0 | 27.0 | 0.00 | 0.00 | 0.00 | 66 | 1010.9 |
| 20260902175803 | 74 | 1 | 10.0 | 27.0 | 0.00 | 0.00 | 0.00 | 67 | 1010.9 |
| 20260902175703 | 73 | 2 | 11.0 | 27.0 | 0.00 | 0.00 | 0.00 | 67 | 1010.8 |
| 20260902175603 | 73 | 12 | 10.0 | 24.0 | 0.00 | 0.00 | 0.00 | 67 | 1010.9 |
| 20260902175503 | 74 | 359 | 10.0 | 18.0 | 0.00 | 0.00 | 0.00 | 66 | 1011.0 |
| 20260902175416 | 74 | 353 | 8.0 | 17.0 | 0.00 | 0.00 | 0.00 | 66 | 1010.9 |
| 20260902175403 | 74 | 352 | 8.0 | 17.0 | 0.00 | 0.00 | 0.00 | 66 | 1010.9 |
| 20260902175307 | 74 | 350 | 8.0 | 20.0 | 0.00 | 0.00 | 0.00 | 66 | 1010.9 |
| 20260902175103 | 74 | 343 | 7.0 | 20.0 | 0.00 | 0.00 | 0.00 | 65 | 1011.2 |
| 20260902175003 | 74 | 351 | 8.0 | 20.0 | 0.00 | 0.00 | 0.00 | 65 | 1011.0 |
| 20260902174903 | 74 | 358 | 6.0 | 20.0 | 0.00 | 0.00 | 0.00 | 66 | 1011.1 |
| 20260902174803 | 74 | 351 | 9.0 | 20.0 | 0.00 | 0.00 | 0.00 | 66 | 1010.9 |
| 20260902174703 | 74 | 351 | 10.0 | 24.0 | 0.00 | 0.00 | 0.00 | 66 | 1011.2 |
| 20260902174603 | 73 | 350 | 9.0 | 24.0 | 0.00 | 0.00 | 0.00 | 67 | 1011.3 |
| 20260902174503 | 73 | 356 | 9.0 | 24.0 | 0.00 | 0.00 | 0.00 | 67 | 1011.1 |
| 20260902174403 | 74 | 356 | 10.0 | 24.0 | 0.00 | 0.00 | 0.00 | 66 | 1011.2 |
| 20260902174303 | 74 | 357 | 6.0 | 24.0 | 0.00 | 0.00 | 0.00 | 66 | 1011.3 |
| 20260902174203 | 73 | 10 | 10.0 | 24.0 | 0.00 | 0.00 | 0.00 | 67 | 1011.2 |
| 20260902174103 | 74 | 19 | 11.0 | 23.0 | 0.00 | 0.00 | 0.00 | 66 | 1011.3 |
| 20260902174017 | 74 | 18 | 8.0 | 23.0 | 0.00 | 0.00 | 0.00 | 66 | 1011.5 |
| 20260902174003 | 74 | 16 | 8.0 | 23.0 | 0.00 | 0.00 | 0.00 | 66 | 1011.5 |
| 20260902173903 | 73 | 10 | 10.0 | 23.0 | 0.00 | 0.00 | 0.00 | 67 | 1011.3 |
| 20260902173703 | 73 | 357 | 14.0 | 22.0 | 0.00 | 0.00 | 0.00 | 67 | 1011.2 |
| 20260902173603 | 73 | 358 | 13.0 | 18.0 | 0.00 | 0.00 | 0.00 | 67 | 1011.3 |
| 20260902173503 | 74 | 357 | 9.0 | 18.0 | 0.00 | 0.00 | 0.00 | 66 | 1011.4 |
| 20260902173403 | 74 | 357 | 10.0 | 18.0 | 0.00 | 0.00 | 0.00 | 66 | 1011.6 |
| 20260902173327 | 74 | 357 | 4.0 | 16.0 | 0.00 | 0.00 | 0.00 | 66 | 1011.5 |
| 20260902173303 | 74 | 355 | 4.0 | 16.0 | 0.00 | 0.00 | 0.00 | 66 | 1011.5 |
| 20260902173203 | 74 | 353 | 8.0 | 16.0 | 0.00 | 0.00 | 0.00 | 66 | 1011.5 |
| 20260902173118 | 74 | 339 | 8.0 | 18.0 | 0.00 | 0.00 | 0.00 | 66 | 1011.4 |
| 20260902172917 | 73 | 327 | 11.0 | 18.0 | 0.00 | 0.00 | 0.00 | 66 | 1011.3 |
| 20260902172803 | 73 | 329 | 11.0 | 23.0 | 0.00 | 0.00 | 0.00 | 67 | 1011.6 |
| 20260902172617 | 74 | 356 | 6.0 | 25.0 | 0.00 | 0.00 | 0.00 | 66 | 1011.4 |
| 20260902172603 | 74 | 354 | 6.0 | 25.0 | 0.00 | 0.00 | 0.00 | 66 | 1011.4 |
| 20260902172503 | 74 | 347 | 8.0 | 25.0 | 0.00 | 0.00 | 0.00 | 67 | 1011.8 |
| 20260902172308 | 73 | 345 | 14.0 | 25.0 | 0.00 | 0.00 | 0.00 | 67 | 1011.7 |
| 20260902172203 | 73 | 329 | 9.0 | 21.0 | 0.00 | 0.00 | 0.00 | 66 | 1011.7 |
| 20260902172103 | 74 | 340 | 8.0 | 21.0 | 0.00 | 0.00 | 0.00 | 66 | 1011.7 |
| 20260902172004 | 73 | 350 | 9.0 | 22.0 | 0.00 | 0.00 | 0.00 | 67 | 1011.7 |
| 20260902171903 | 73 | 349 | 9.0 | 22.0 | 0.00 | 0.00 | 0.00 | 67 | 1011.6 |
| 20260902171803 | 73 | 355 | 11.0 | 22.0 | 0.00 | 0.00 | 0.00 | 67 | 1011.8 |
| 20260902171703 | 73 | 356 | 12.0 | 22.0 | 0.00 | 0.00 | 0.00 | 67 | 1011.8 |
| 20260902171603 | 73 | 345 | 12.0 | 22.0 | 0.00 | 0.00 | 0.00 | 67 | 1011.9 |
| 20260902171503 | 73 | 335 | 12.0 | 16.0 | 0.00 | 0.00 | 0.00 | 67 | 1011.9 |
| 20260902171403 | 73 | 329 | 8.0 | 18.0 | 0.00 | 0.00 | 0.00 | 67 | 1012.0 |
| 20260902171303 | 73 | 316 | 10.0 | 20.0 | 0.00 | 0.00 | 0.00 | 66 | 1011.8 |
| 20260902171203 | 74 | 325 | 7.0 | 20.0 | 0.00 | 0.00 | 0.00 | 66 | 1012.0 |
| 20260902171103 | 73 | 345 | 7.0 | 20.0 | 0.00 | 0.00 | 0.00 | 67 | 1011.9 |
| 20260902171003 | 73 | 342 | 8.0 | 20.0 | 0.00 | 0.00 | 0.00 | 67 | 1012.1 |
| 20260902170903 | 73 | 357 | 12.0 | 20.0 | 0.00 | 0.00 | 0.00 | 67 | 1011.9 |
| 20260902170803 | 73 | 7 | 14.0 | 20.0 | 0.00 | 0.00 | 0.00 | 67 | 1012.1 |
| 20260902170703 | 73 | 1 | 8.0 | 18.0 | 0.00 | 0.00 | 0.00 | 67 | 1011.9 |
| 20260902170603 | 73 | 344 | 9.0 | 18.0 | 0.00 | 0.00 | 0.00 | 68 | 1011.9 |
| 20260902170503 | 73 | 350 | 13.0 | 18.0 | 0.00 | 0.00 | 0.00 | 68 | 1012.0 |
| 20260902170403 | 74 | 344 | 8.0 | 13.0 | 0.00 | 0.00 | 0.00 | 67 | 1012.2 |
| 20260902170303 | 73 | 1 | 3.0 | 20.0 | 0.00 | 0.00 | 0.00 | 68 | 1012.1 |
| 20260902170203 | 73 | 2 | 5.0 | 20.0 | 0.00 | 0.00 | 0.00 | 68 | 1012.2 |
| 20260902170118 | 73 | 6 | 7.0 | 20.0 | 0.00 | 0.00 | 0.00 | 68 | 1012.1 |
| 20260902170003 | 73 | 13 | 6.0 | 20.0 | 0.00 | 0.00 | 0.00 | 69 | 1012.1 |
| 20260902165718 | 72 | 7 | 10.0 | 17.0 | 0.00 | 0.00 | 0.00 | 69 | 1012.3 |
| 20260902165703 | 72 | 6 | 10.0 | 17.0 | 0.00 | 0.00 | 0.00 | 69 | 1012.3 |
| 20260902165603 | 73 | 4 | 4.0 | 17.0 | 0.00 | 0.00 | 0.00 | 68 | 1012.5 |
| 20260902165403 | 73 | 357 | 6.0 | 17.0 | 0.00 | 0.00 | 0.00 | 69 | 1012.3 |
| 20260902165308 | 72 | 357 | 9.0 | 22.0 | 0.00 | 0.00 | 0.00 | 69 | 1012.6 |
| 20260902165203 | 73 | 345 | 6.0 | 22.0 | 0.00 | 0.00 | 0.00 | 69 | 1012.5 |
| 20260902165118 | 73 | 337 | 5.0 | 22.0 | 0.00 | 0.00 | 0.00 | 69 | 1012.4 |
| 20260902165103 | 73 | 340 | 6.0 | 22.0 | 0.00 | 0.00 | 0.00 | 69 | 1012.4 |
| 20260902165003 | 72 | 351 | 8.0 | 22.0 | 0.00 | 0.00 | 0.00 | 70 | 1012.3 |
| 20260902164917 | 72 | 355 | 8.0 | 22.0 | 0.00 | 0.00 | 0.00 | 70 | 1012.4 |
| 20260902164803 | 72 | 345 | 9.0 | 22.0 | 0.00 | 0.00 | 0.00 | 70 | 1012.4 |
| 20260902164603 | 72 | 344 | 9.0 | 18.0 | 0.00 | 0.00 | 0.00 | 70 | 1012.6 |
| 20260902164503 | 72 | 334 | 9.0 | 18.0 | 0.00 | 0.00 | 0.00 | 70 | 1012.7 |
| 20260902164403 | 72 | 319 | 10.0 | 18.0 | 0.00 | 0.00 | 0.00 | 70 | 1012.6 |
| 20260902164317 | 72 | 326 | 8.0 | 18.0 | 0.00 | 0.00 | 0.00 | 70 | 1012.7 |
| 20260902164203 | 72 | 319 | 9.0 | 18.0 | 0.00 | 0.00 | 0.00 | 69 | 1012.7 |
| 20260902164003 | 73 | 321 | 8.0 | 22.0 | 0.00 | 0.00 | 0.00 | 68 | 1012.7 |
| 20260902163903 | 73 | 336 | 3.0 | 22.0 | 0.00 | 0.00 | 0.00 | 69 | 1012.8 |
| 20260902163803 | 72 | 341 | 4.0 | 22.0 | 0.00 | 0.00 | 0.00 | 70 | 1012.9 |
| 20260902163703 | 72 | 339 | 4.0 | 22.0 | 0.00 | 0.00 | 0.00 | 70 | 1012.9 |
| 20260902163603 | 72 | 333 | 11.0 | 22.0 | 0.00 | 0.00 | 0.00 | 71 | 1012.9 |
| 20260902163503 | 71 | 315 | 9.0 | 20.0 | 0.00 | 0.00 | 0.00 | 71 | 1012.8 |
| 20260902163403 | 72 | 311 | 11.0 | 20.0 | 0.00 | 0.00 | 0.00 | 70 | 1013.3 |
| 20260902163303 | 72 | 311 | 10.0 | 20.0 | 0.00 | 0.00 | 0.00 | 70 | 1013.0 |
| 20260902163203 | 72 | 315 | 8.0 | 20.0 | 0.00 | 0.00 | 0.00 | 71 | 1013.0 |
| 20260902163003 | 71 | 352 | 13.0 | 23.0 | 0.00 | 0.00 | 0.00 | 71 | 1013.0 |
| 20260902162903 | 71 | 4 | 11.0 | 23.0 | 0.00 | 0.00 | 0.00 | 70 | 1012.9 |
| 20260902162803 | 72 | 4 | 9.0 | 23.0 | 0.00 | 0.00 | 0.00 | 70 | 1012.9 |
| 20260902162703 | 72 | 358 | 9.0 | 23.0 | 0.00 | 0.00 | 0.00 | 70 | 1012.9 |
| 20260902162603 | 72 | 350 | 11.0 | 23.0 | 0.00 | 0.00 | 0.00 | 70 | 1013.1 |
| 20260902162504 | 72 | 344 | 13.0 | 20.0 | 0.00 | 0.00 | 0.00 | 69 | 1013.0 |
| 20260902162403 | 72 | 330 | 11.0 | 20.0 | 0.00 | 0.00 | 0.00 | 69 | 1013.2 |
| 20260902162306 | 72 | 327 | 11.0 | 20.0 | 0.00 | 0.00 | 0.00 | 68 | 1013.1 |
| 20260902162203 | 72 | 337 | 8.0 | 16.0 | 0.00 | 0.00 | 0.00 | 68 | 1013.0 |
| 20260902162103 | 73 | 350 | 6.0 | 21.0 | 0.00 | 0.00 | 0.00 | 69 | 1013.1 |
| 20260902162004 | 72 | 357 | 7.0 | 21.0 | 0.00 | 0.00 | 0.00 | 69 | 1013.2 |
| 20260902161903 | 72 | 346 | 7.0 | 21.0 | 0.00 | 0.00 | 0.00 | 70 | 1013.3 |
| 20260902161803 | 72 | 341 | 7.0 | 21.0 | 0.00 | 0.00 | 0.00 | 70 | 1013.1 |
| 20260902161703 | 72 | 342 | 10.0 | 21.0 | 0.00 | 0.00 | 0.00 | 70 | 1013.2 |
| 20260902161603 | 71 | 344 | 11.0 | 21.0 | 0.00 | 0.00 | 0.00 | 70 | 1013.3 |
| 20260902161503 | 72 | 332 | 15.0 | 20.0 | 0.00 | 0.00 | 0.00 | 70 | 1013.2 |
| 20260902161403 | 72 | 345 | 8.0 | 20.0 | 0.00 | 0.00 | 0.00 | 70 | 1013.3 |
| 20260902161303 | 72 | 343 | 9.0 | 25.0 | 0.00 | 0.00 | 0.00 | 70 | 1013.2 |
| 20260902161203 | 71 | 342 | 9.0 | 25.0 | 0.00 | 0.00 | 0.00 | 71 | 1013.2 |
| 20260902161103 | 72 | 345 | 9.0 | 25.0 | 0.00 | 0.00 | 0.00 | 70 | 1013.3 |
| 20260902161018 | 71 | 348 | 8.0 | 25.0 | 0.00 | 0.00 | 0.00 | 71 | 1013.4 |
| 20260902161003 | 71 | 345 | 8.0 | 25.0 | 0.00 | 0.00 | 0.00 | 71 | 1013.4 |
| 20260902160917 | 71 | 341 | 9.0 | 25.0 | 0.00 | 0.00 | 0.00 | 71 | 1013.6 |
| 20260902160903 | 71 | 340 | 9.0 | 25.0 | 0.00 | 0.00 | 0.00 | 71 | 1013.6 |
| 20260902160603 | 72 | 356 | 9.0 | 17.0 | 0.00 | 0.00 | 0.00 | 70 | 1013.5 |
| 20260902160503 | 72 | 21 | 7.0 | 15.0 | 0.00 | 0.00 | 0.00 | 69 | 1013.7 |
| 20260902160418 | 72 | 16 | 4.0 | 17.0 | 0.00 | 0.00 | 0.00 | 69 | 1013.5 |
| 20260902160403 | 72 | 13 | 4.0 | 17.0 | 0.00 | 0.00 | 0.00 | 69 | 1013.5 |
| 20260902160303 | 72 | 11 | 6.0 | 17.0 | 0.00 | 0.00 | 0.00 | 70 | 1013.5 |
| 20260902160103 | 72 | 344 | 10.0 | 18.0 | 0.00 | 0.00 | 0.00 | 70 | 1013.7 |
| 20260902160005 | 72 | 331 | 10.0 | 20.0 | 0.00 | 0.00 | 0.00 | 70 | 1013.7 |
| 20260902155903 | 72 | 328 | 8.0 | 20.0 | 0.00 | 0.00 | 0.00 | 70 | 1013.7 |
| 20260902155803 | 72 | 327 | 8.0 | 20.0 | 0.00 | 0.00 | 0.00 | 70 | 1013.6 |
| 20260902155703 | 71 | 323 | 11.0 | 20.0 | 0.00 | 0.00 | 0.00 | 70 | 1013.7 |
| 20260902155603 | 71 | 316 | 13.0 | 20.0 | 0.00 | 0.00 | 0.00 | 70 | 1013.8 |
| 20260902155503 | 71 | 311 | 11.0 | 20.0 | 0.00 | 0.00 | 0.00 | 70 | 1013.9 |
| 20260902155418 | 71 | 313 | 11.0 | 20.0 | 0.00 | 0.00 | 0.00 | 69 | 1013.7 |
| 20260902155403 | 71 | 316 | 11.0 | 20.0 | 0.00 | 0.00 | 0.00 | 69 | 1013.7 |
| 20260902155306 | 72 | 307 | 8.0 | 20.0 | 0.00 | 0.00 | 0.00 | 69 | 1013.7 |
| 20260902155217 | 72 | 308 | 7.0 | 20.0 | 0.00 | 0.00 | 0.00 | 70 | 1013.8 |
| 20260902155103 | 71 | 320 | 11.0 | 20.0 | 0.00 | 0.00 | 0.00 | 70 | 1014.1 |
| 20260902154903 | 72 | 325 | 8.0 | 18.0 | 0.00 | 0.00 | 0.00 | 69 | 1014.1 |
| 20260902154817 | 71 | 327 | 8.0 | 18.0 | 0.00 | 0.00 | 0.00 | 70 | 1014.0 |
| 20260902154803 | 71 | 330 | 8.0 | 18.0 | 0.00 | 0.00 | 0.00 | 70 | 1014.0 |
| 20260902154718 | 72 | 337 | 8.0 | 17.0 | 0.00 | 0.00 | 0.00 | 69 | 1013.9 |
| 20260902154703 | 72 | 337 | 11.0 | 17.0 | 0.00 | 0.00 | 0.00 | 69 | 1014.0 |
| 20260902154403 | 72 | 343 | 7.0 | 11.0 | 0.00 | 0.00 | 0.00 | 69 | 1014.2 |
| 20260902154313 | 72 | 359 | 5.0 | 11.0 | 0.00 | 0.00 | 0.00 | 69 | 1014.0 |
| 20260902154203 | 72 | 349 | 5.0 | 16.0 | 0.00 | 0.00 | 0.00 | 69 | 1014.2 |
| 20260902154103 | 72 | 346 | 4.0 | 16.0 | 0.00 | 0.00 | 0.00 | 69 | 1014.1 |
| 20260902154003 | 72 | 348 | 8.0 | 17.0 | 0.00 | 0.00 | 0.00 | 68 | 1014.3 |
| 20260902153917 | 72 | 352 | 6.0 | 17.0 | 0.00 | 0.00 | 0.00 | 68 | 1014.3 |
| 20260902153903 | 72 | 354 | 6.0 | 20.0 | 0.00 | 0.00 | 0.00 | 68 | 1014.4 |
| 20260902153603 | 72 | 2 | 8.0 | 22.0 | 0.00 | 0.00 | 0.00 | 68 | 1014.2 |
| 20260902153503 | 71 | 358 | 8.0 | 27.0 | 0.00 | 0.00 | 0.00 | 69 | 1014.3 |
| 20260902153403 | 71 | 355 | 10.0 | 27.0 | 0.00 | 0.00 | 0.00 | 69 | 1014.2 |
| 20260902153318 | 71 | 358 | 15.0 | 27.0 | 0.00 | 0.00 | 0.00 | 69 | 1014.4 |
| 20260902153303 | 71 | 1 | 15.0 | 27.0 | 0.00 | 0.00 | 0.00 | 69 | 1014.4 |
| 20260902153203 | 71 | 3 | 14.0 | 27.0 | 0.00 | 0.00 | 0.00 | 68 | 1014.5 |
| 20260902153003 | 71 | 360 | 13.0 | 27.0 | 0.00 | 0.00 | 0.00 | 69 | 1014.5 |
| 20260902152903 | 71 | 357 | 12.0 | 27.0 | 0.00 | 0.00 | 0.00 | 69 | 1014.2 |
| 20260902152803 | 71 | 359 | 10.0 | 27.0 | 0.00 | 0.00 | 0.00 | 68 | 1014.5 |
| 20260902152703 | 71 | 349 | 12.0 | 27.0 | 0.00 | 0.00 | 0.00 | 68 | 1014.4 |
| 20260902152603 | 71 | 347 | 11.0 | 27.0 | 0.00 | 0.00 | 0.00 | 69 | 1014.4 |
| 20260902152517 | 71 | 340 | 15.0 | 27.0 | 0.00 | 0.00 | 0.00 | 69 | 1014.5 |
| 20260902152503 | 71 | 337 | 15.0 | 27.0 | 0.00 | 0.00 | 0.00 | 69 | 1014.5 |
| 20260902152403 | 71 | 351 | 10.0 | 27.0 | 0.00 | 0.00 | 0.00 | 69 | 1014.6 |
| 20260902152203 | 71 | 3 | 10.0 | 27.0 | 0.00 | 0.00 | 0.00 | 68 | 1014.4 |
| 20260902152103 | 71 | 10 | 14.0 | 27.0 | 0.00 | 0.00 | 0.00 | 68 | 1014.6 |
| 20260902152003 | 71 | 11 | 8.0 | 22.0 | 0.00 | 0.00 | 0.00 | 68 | 1014.5 |
| 20260902151916 | 71 | 1 | 11.0 | 22.0 | 0.00 | 0.00 | 0.00 | 68 | 1014.5 |
| 20260902151903 | 71 | 356 | 10.0 | 22.0 | 0.00 | 0.00 | 0.00 | 69 | 1014.5 |
| 20260902151803 | 71 | 342 | 15.0 | 22.0 | 0.00 | 0.00 | 0.00 | 69 | 1014.5 |
| 20260902151603 | 71 | 335 | 15.0 | 21.0 | 0.00 | 0.00 | 0.00 | 69 | 1014.7 |
| 20260902151503 | 71 | 344 | 9.0 | 20.0 | 0.00 | 0.00 | 0.00 | 69 | 1014.6 |
| 20260902151403 | 71 | 358 | 5.0 | 20.0 | 0.00 | 0.00 | 0.00 | 69 | 1014.4 |
| 20260902151303 | 71 | 14 | 12.0 | 21.0 | 0.00 | 0.00 | 0.00 | 69 | 1014.6 |
| 20260902151203 | 71 | 15 | 9.0 | 21.0 | 0.00 | 0.00 | 0.00 | 70 | 1014.5 |
| 20260902151103 | 71 | 355 | 5.0 | 21.0 | 0.00 | 0.00 | 0.00 | 70 | 1014.6 |
| 20260902151003 | 71 | 336 | 5.0 | 21.0 | 0.00 | 0.00 | 0.00 | 70 | 1014.7 |
| 20260902150903 | 71 | 342 | 10.0 | 21.0 | 0.00 | 0.00 | 0.00 | 71 | 1014.6 |
| 20260902150817 | 71 | 337 | 13.0 | 21.0 | 0.00 | 0.00 | 0.00 | 72 | 1014.7 |
| 20260902150803 | 71 | 332 | 13.0 | 21.0 | 0.00 | 0.00 | 0.00 | 72 | 1014.7 |
| 20260902150703 | 71 | 325 | 12.0 | 20.0 | 0.00 | 0.00 | 0.00 | 72 | 1014.7 |
| 20260902150503 | 71 | 338 | 7.0 | 22.0 | 0.00 | 0.00 | 0.00 | 71 | 1014.7 |
| 20260902150403 | 71 | 331 | 4.0 | 22.0 | 0.00 | 0.00 | 0.00 | 71 | 1014.6 |
| 20260902150303 | 71 | 327 | 8.0 | 22.0 | 0.00 | 0.00 | 0.00 | 72 | 1014.5 |
| 20260902150203 | 70 | 328 | 11.0 | 22.0 | 0.00 | 0.00 | 0.00 | 72 | 1014.7 |
| 20260902150103 | 70 | 327 | 10.0 | 22.0 | 0.00 | 0.00 | 0.00 | 74 | 1014.8 |
| 20260902150003 | 70 | 333 | 10.0 | 22.0 | 0.00 | 0.00 | 0.00 | 74 | 1014.7 |
| 20260902145918 | 70 | 329 | 11.0 | 21.0 | 0.00 | 0.00 | 0.00 | 74 | 1014.6 |
| 20260902145903 | 70 | 326 | 6.0 | 21.0 | 0.00 | 0.00 | 0.00 | 75 | 1014.7 |
| 20260902145803 | 70 | 318 | 9.0 | 21.0 | 0.00 | 0.00 | 0.00 | 75 | 1014.6 |
| 20260902145717 | 70 | 318 | 5.0 | 21.0 | 0.00 | 0.00 | 0.00 | 75 | 1014.5 |
| 20260902145603 | 70 | 328 | 6.0 | 21.0 | 0.00 | 0.00 | 0.00 | 76 | 1014.8 |
| 20260902145517 | 69 | 323 | 8.0 | 21.0 | 0.00 | 0.00 | 0.00 | 76 | 1014.8 |
| 20260902145403 | 69 | 343 | 5.0 | 15.0 | 0.00 | 0.00 | 0.00 | 76 | 1014.8 |
| 20260902145203 | 69 | 345 | 9.0 | 16.0 | 0.00 | 0.00 | 0.00 | 75 | 1014.6 |
| 20260902145117 | 70 | 347 | 5.0 | 16.0 | 0.00 | 0.00 | 0.00 | 76 | 1014.8 |
| 20260902145103 | 69 | 348 | 8.0 | 17.0 | 0.00 | 0.00 | 0.00 | 76 | 1014.6 |
| 20260902145003 | 69 | 359 | 9.0 | 17.0 | 0.00 | 0.00 | 0.00 | 76 | 1014.6 |
| 20260902144803 | 69 | 10 | 7.0 | 17.0 | 0.00 | 0.00 | 0.00 | 76 | 1014.8 |
| 20260902144703 | 69 | 20 | 6.0 | 17.0 | 0.00 | 0.00 | 0.00 | 76 | 1015.0 |
| 20260902144603 | 69 | 8 | 10.0 | 17.0 | 0.00 | 0.00 | 0.00 | 75 | 1014.8 |
| 20260902144503 | 69 | 2 | 8.0 | 16.0 | 0.00 | 0.00 | 0.00 | 75 | 1015.0 |
| 20260902144403 | 69 | 359 | 8.0 | 16.0 | 0.00 | 0.00 | 0.00 | 75 | 1014.9 |
| 20260902144303 | 69 | 349 | 11.0 | 16.0 | 0.00 | 0.00 | 0.00 | 75 | 1014.9 |
| 20260902144203 | 69 | 347 | 6.0 | 18.0 | 0.00 | 0.00 | 0.00 | 75 | 1015.0 |
| 20260902144103 | 69 | 339 | 5.0 | 18.0 | 0.00 | 0.00 | 0.00 | 75 | 1015.0 |
| 20260902144003 | 69 | 342 | 10.0 | 18.0 | 0.00 | 0.00 | 0.00 | 75 | 1015.2 |
| 20260902143905 | 69 | 347 | 5.0 | 21.0 | 0.00 | 0.00 | 0.00 | 76 | 1015.0 |
| 20260902143803 | 69 | 356 | 8.0 | 21.0 | 0.00 | 0.00 | 0.00 | 76 | 1015.1 |
| 20260902143703 | 69 | 357 | 9.0 | 21.0 | 0.00 | 0.00 | 0.00 | 76 | 1015.0 |
| 20260902143603 | 69 | 353 | 8.0 | 21.0 | 0.00 | 0.00 | 0.00 | 76 | 1015.2 |
| 20260902143504 | 69 | 355 | 10.0 | 21.0 | 0.00 | 0.00 | 0.00 | 76 | 1015.3 |
| 20260902143403 | 69 | 359 | 10.0 | 20.0 | 0.00 | 0.00 | 0.00 | 75 | 1015.2 |
| 20260902143303 | 69 | 337 | 5.0 | 22.0 | 0.00 | 0.00 | 0.00 | 76 | 1015.0 |
| 20260902143203 | 69 | 335 | 6.0 | 22.0 | 0.00 | 0.00 | 0.00 | 76 | 1015.2 |
| 20260902143103 | 68 | 354 | 8.0 | 22.0 | 0.00 | 0.00 | 0.00 | 76 | 1015.0 |
| 20260902143003 | 68 | 348 | 8.0 | 22.0 | 0.00 | 0.00 | 0.00 | 77 | 1015.0 |
| 20260902142903 | 68 | 333 | 9.0 | 22.0 | 0.00 | 0.00 | 0.00 | 77 | 1015.3 |
| 20260902142803 | 68 | 338 | 13.0 | 22.0 | 0.00 | 0.00 | 0.00 | 77 | 1015.2 |
| 20260902142705 | 68 | 341 | 9.0 | 20.0 | 0.00 | 0.00 | 0.00 | 76 | 1015.2 |
| 20260902142605 | 68 | 336 | 10.0 | 20.0 | 0.00 | 0.00 | 0.00 | 76 | 1015.2 |
| 20260902142503 | 68 | 343 | 6.0 | 20.0 | 0.00 | 0.00 | 0.00 | 76 | 1015.3 |
| 20260902142403 | 68 | 350 | 12.0 | 20.0 | 0.00 | 0.00 | 0.00 | 76 | 1015.1 |
| 20260902142318 | 69 | 344 | 6.0 | 16.0 | 0.00 | 0.00 | 0.00 | 76 | 1015.5 |
| 20260902142306 | 69 | 344 | 4.0 | 18.0 | 0.00 | 0.00 | 0.00 | 76 | 1015.3 |
| 20260902142203 | 68 | 348 | 6.0 | 18.0 | 0.00 | 0.00 | 0.00 | 77 | 1015.2 |
| 20260902142117 | 68 | 354 | 7.0 | 18.0 | 0.00 | 0.00 | 0.00 | 76 | 1015.4 |
| 20260902142003 | 68 | 348 | 8.0 | 18.0 | 0.00 | 0.00 | 0.00 | 77 | 1015.3 |
| 20260902141918 | 68 | 352 | 8.0 | 18.0 | 0.00 | 0.00 | 0.00 | 77 | 1015.2 |
| 20260902141803 | 68 | 13 | 9.0 | 22.0 | 0.00 | 0.00 | 0.00 | 77 | 1015.3 |
| 20260902141603 | 68 | 352 | 8.0 | 22.0 | 0.00 | 0.00 | 0.00 | 78 | 1015.3 |
| 20260902141503 | 68 | 345 | 9.0 | 22.0 | 0.00 | 0.00 | 0.00 | 77 | 1015.2 |
| 20260902141403 | 68 | 345 | 8.0 | 22.0 | 0.00 | 0.00 | 0.00 | 78 | 1015.1 |
| 20260902141303 | 67 | 340 | 13.0 | 22.0 | 0.00 | 0.00 | 0.00 | 78 | 1015.3 |
| 20260902141103 | 67 | 353 | 11.0 | 22.0 | 0.00 | 0.00 | 0.00 | 78 | 1015.3 |
| 20260902141003 | 67 | 9 | 10.0 | 20.0 | 0.00 | 0.00 | 0.00 | 78 | 1015.4 |
| 20260902140903 | 68 | 4 | 4.0 | 20.0 | 0.00 | 0.00 | 0.00 | 78 | 1015.0 |
| 20260902140808 | 67 | 357 | 8.0 | 20.0 | 0.00 | 0.00 | 0.00 | 79 | 1015.3 |
| 20260902140717 | 67 | 358 | 7.0 | 20.0 | 0.00 | 0.00 | 0.00 | 79 | 1015.2 |
| 20260902140703 | 67 | 2 | 8.0 | 20.0 | 0.00 | 0.00 | 0.00 | 79 | 1015.2 |
| 20260902140603 | 67 | 13 | 11.0 | 20.0 | 0.00 | 0.00 | 0.00 | 79 | 1015.3 |
| 20260902140516 | 67 | 11 | 5.0 | 18.0 | 0.00 | 0.00 | 0.00 | 79 | 1015.3 |
| 20260902140403 | 67 | 358 | 10.0 | 18.0 | 0.00 | 0.00 | 0.00 | 79 | 1015.4 |
| 20260902140203 | 67 | 353 | 11.0 | 23.0 | 0.00 | 0.00 | 0.00 | 80 | 1015.5 |
| 20260902140103 | 67 | 342 | 11.0 | 23.0 | 0.00 | 0.00 | 0.00 | 80 | 1015.3 |
| 20260902140003 | 67 | 345 | 8.0 | 23.0 | 0.00 | 0.00 | 0.00 | 80 | 1015.3 |
| 20260902135903 | 66 | 342 | 13.0 | 23.0 | 0.00 | 0.00 | 0.00 | 80 | 1015.5 |
| 20260902135817 | 66 | 328 | 10.0 | 23.0 | 0.00 | 0.00 | 0.00 | 81 | 1015.5 |
| 20260902135703 | 66 | 339 | 13.0 | 23.0 | 0.00 | 0.00 | 0.00 | 81 | 1015.4 |
| 20260902135503 | 67 | 328 | 9.0 | 16.0 | 0.00 | 0.00 | 0.00 | 80 | 1015.4 |
| 20260902135403 | 67 | 339 | 8.0 | 16.0 | 0.00 | 0.00 | 0.00 | 80 | 1015.5 |
| 20260902135306 | 67 | 339 | 8.0 | 16.0 | 0.00 | 0.00 | 0.00 | 80 | 1015.4 |
| 20260902135203 | 67 | 334 | 9.0 | 16.0 | 0.00 | 0.00 | 0.00 | 81 | 1015.5 |
| 20260902135117 | 67 | 332 | 8.0 | 16.0 | 0.00 | 0.00 | 0.00 | 81 | 1015.7 |
| 20260902135103 | 66 | 332 | 7.0 | 16.0 | 0.00 | 0.00 | 0.00 | 81 | 1015.7 |
| 20260902135003 | 66 | 329 | 8.0 | 17.0 | 0.00 | 0.00 | 0.00 | 81 | 1015.4 |
| 20260902134803 | 66 | 322 | 6.0 | 20.0 | 0.00 | 0.00 | 0.00 | 81 | 1015.5 |
| 20260902134703 | 66 | 327 | 9.0 | 20.0 | 0.00 | 0.00 | 0.00 | 81 | 1015.6 |
| 20260902134603 | 66 | 326 | 6.0 | 20.0 | 0.00 | 0.00 | 0.00 | 81 | 1015.6 |
| 20260902134518 | 66 | 326 | 10.0 | 20.0 | 0.00 | 0.00 | 0.00 | 81 | 1015.5 |
| 20260902134503 | 66 | 329 | 10.0 | 20.0 | 0.00 | 0.00 | 0.00 | 81 | 1015.5 |
| 20260902134403 | 66 | 337 | 11.0 | 20.0 | 0.00 | 0.00 | 0.00 | 81 | 1015.5 |
| 20260902134203 | 66 | 349 | 11.0 | 20.0 | 0.00 | 0.00 | 0.00 | 81 | 1015.7 |
| 20260902134117 | 66 | 345 | 8.0 | 18.0 | 0.00 | 0.00 | 0.00 | 81 | 1015.7 |
| 20260902134103 | 66 | 348 | 8.0 | 18.0 | 0.00 | 0.00 | 0.00 | 81 | 1015.7 |
| 20260902134003 | 66 | 345 | 7.0 | 18.0 | 0.00 | 0.00 | 0.00 | 81 | 1015.6 |
| 20260902133803 | 67 | 337 | 7.0 | 13.0 | 0.00 | 0.00 | 0.00 | 81 | 1015.7 |
| 20260902133703 | 67 | 333 | 3.0 | 13.0 | 0.00 | 0.00 | 0.00 | 81 | 1015.6 |
| 20260902133603 | 66 | 334 | 6.0 | 13.0 | 0.00 | 0.00 | 0.00 | 81 | 1015.8 |
| 20260902133503 | 66 | 330 | 8.0 | 13.0 | 0.00 | 0.00 | 0.00 | 81 | 1015.6 |
| 20260902133303 | 66 | 337 | 5.0 | 13.0 | 0.00 | 0.00 | 0.00 | 82 | 1015.5 |
| 20260902133218 | 66 | 333 | 7.0 | 13.0 | 0.00 | 0.00 | 0.00 | 82 | 1015.8 |
| 20260902133203 | 66 | 330 | 7.0 | 13.0 | 0.00 | 0.00 | 0.00 | 82 | 1015.8 |
| 20260902132903 | 66 | 322 | 5.0 | 13.0 | 0.00 | 0.00 | 0.00 | 82 | 1015.6 |
| 20260902132803 | 66 | 323 | 6.0 | 13.0 | 0.00 | 0.00 | 0.00 | 82 | 1015.9 |
| 20260902132703 | 66 | 338 | 5.0 | 13.0 | 0.00 | 0.00 | 0.00 | 83 | 1015.4 |
| 20260902132603 | 66 | 347 | 4.0 | 13.0 | 0.00 | 0.00 | 0.00 | 83 | 1015.8 |
| 20260902132503 | 65 | 1 | 4.0 | 13.0 | 0.00 | 0.00 | 0.00 | 83 | 1015.7 |
| 20260902132403 | 65 | 360 | 4.0 | 9.0 | 0.00 | 0.00 | 0.00 | 83 | 1015.5 |
| 20260902132306 | 65 | 349 | 5.0 | 11.0 | 0.00 | 0.00 | 0.00 | 83 | 1015.6 |
| 20260902132203 | 65 | 350 | 3.0 | 11.0 | 0.00 | 0.00 | 0.00 | 84 | 1015.9 |
| 20260902132103 | 65 | 360 | 4.0 | 11.0 | 0.00 | 0.00 | 0.00 | 84 | 1015.8 |
| 20260902132003 | 65 | 359 | 5.0 | 13.0 | 0.00 | 0.00 | 0.00 | 84 | 1015.5 |
| 20260902131903 | 65 | 357 | 5.0 | 13.0 | 0.00 | 0.00 | 0.00 | 84 | 1015.8 |
| 20260902131803 | 65 | 3 | 7.0 | 13.0 | 0.00 | 0.00 | 0.00 | 84 | 1015.6 |
| 20260902131717 | 64 | 348 | 4.0 | 13.0 | 0.00 | 0.00 | 0.00 | 85 | 1015.7 |
| 20260902131703 | 64 | 340 | 4.0 | 13.0 | 0.00 | 0.00 | 0.00 | 85 | 1015.7 |
| 20260902131618 | 64 | 339 | 6.0 | 14.0 | 0.00 | 0.00 | 0.00 | 85 | 1015.5 |
| 20260902131603 | 64 | 338 | 6.0 | 14.0 | 0.00 | 0.00 | 0.00 | 85 | 1015.5 |
| 20260902131303 | 64 | 346 | 3.0 | 15.0 | 0.00 | 0.00 | 0.00 | 86 | 1015.7 |
| 20260902131203 | 64 | 346 | 5.0 | 16.0 | 0.00 | 0.00 | 0.00 | 86 | 1015.5 |
| 20260902131103 | 63 | 344 | 8.0 | 16.0 | 0.00 | 0.00 | 0.00 | 86 | 1015.7 |
| 20260902131003 | 63 | 340 | 8.0 | 16.0 | 0.00 | 0.00 | 0.00 | 86 | 1015.8 |
| 20260902130903 | 63 | 337 | 8.0 | 16.0 | 0.00 | 0.00 | 0.00 | 86 | 1015.9 |
| 20260902130803 | 63 | 331 | 9.0 | 16.0 | 0.00 | 0.00 | 0.00 | 86 | 1015.6 |
| 20260902130703 | 63 | 341 | 7.0 | 13.0 | 0.00 | 0.00 | 0.00 | 86 | 1015.8 |
| 20260902130603 | 63 | 348 | 6.0 | 13.0 | 0.00 | 0.00 | 0.00 | 86 | 1015.7 |
| 20260902130503 | 63 | 347 | 4.0 | 11.0 | 0.00 | 0.00 | 0.00 | 86 | 1015.8 |
| 20260902130403 | 63 | 340 | 5.0 | 11.0 | 0.00 | 0.00 | 0.00 | 86 | 1015.8 |
| 20260902130303 | 63 | 338 | 5.0 | 11.0 | 0.00 | 0.00 | 0.00 | 86 | 1015.9 |
| 20260902130203 | 63 | 342 | 5.0 | 11.0 | 0.00 | 0.00 | 0.00 | 86 | 1015.8 |
| 20260902130103 | 63 | 348 | 5.0 | 13.0 | 0.00 | 0.00 | 0.00 | 86 | 1015.9 |
| 20260902130004 | 63 | 354 | 5.0 | 13.0 | 0.00 | 0.00 | 0.00 | 86 | 1016.0 |
| 20260902125903 | 63 | 358 | 4.0 | 13.0 | 0.00 | 0.00 | 0.00 | 87 | 1016.1 |
| 20260902125803 | 63 | 6 | 4.0 | 13.0 | 0.00 | 0.00 | 0.00 | 87 | 1015.9 |
| 20260902125703 | 63 | 360 | 4.0 | 13.0 | 0.00 | 0.00 | 0.00 | 87 | 1015.9 |
| 20260902125603 | 63 | 360 | 8.0 | 13.0 | 0.00 | 0.00 | 0.00 | 87 | 1015.9 |
| 20260902125503 | 63 | 353 | 6.0 | 11.0 | 0.00 | 0.00 | 0.00 | 87 | 1016.1 |
| 20260902125403 | 63 | 360 | 5.0 | 11.0 | 0.00 | 0.00 | 0.00 | 87 | 1016.0 |
| 20260902125305 | 63 | 360 | 3.0 | 11.0 | 0.00 | 0.00 | 0.00 | 87 | 1016.2 |
| 20260902125203 | 62 | 360 | 4.0 | 11.0 | 0.00 | 0.00 | 0.00 | 87 | 1016.3 |
| 20260902125103 | 62 | 352 | 8.0 | 11.0 | 0.00 | 0.00 | 0.00 | 87 | 1016.3 |